     2              OBSERVATION DATA    GPS                 RINEX VERSION / TYPE
teqc 2000Feb29 20021016 17:30:01UTC                         PGM / RUN BY / DATE
                                                            COMMENT
L2: 1 -> 1; 5 -> 5; 60 -> 9                                 COMMENT
L2: 1 -> 1; 5 -> 5; 60 -> 9                                 COMMENT
L2: 1 -> 1; 5 -> 5; 60 -> 9                                 COMMENT
L2: 1 -> 1; 5 -> 5; 60 -> 9                                 COMMENT
L2: 1 -> 1; 5 -> 5; 60 -> 9                                 COMMENT
Original Marker Name: 3924192                               COMMENT
Campaign Name: Yolo County Subsidence 2002                  COMMENT
4-Character Station Name: FORD                              COMMENT
6-Character Antenna Code: TRMCMP                            COMMENT
Vertical Measurement Point: BPA                             COMMENT
Vertical Offset to Rinex Ref. Point: 0.0000                 COMMENT
Radial Measurement Point: RRP                               COMMENT
Radial Offset to Rinex Ref. Point: 0.0000                   COMMENT
Antenna Height from Field Measurement: 2.0000 m             COMMENT
Additional Antenna Identification Info.:                    COMMENT
Model 22020.00+GP                                           COMMENT
Original XYZ: -2620323.9202 -4237729.1219 3968618.4150      COMMENT
New XYZ position is based on association with SCEC monument COMMENT
E1O4G9P1+0011. Position of that monument is believed to be  COMMENT
valid to within 1 m horizontally; vertical accuracy         COMMENT
should be no worse than 3-times this value.                 COMMENT
                                                            COMMENT
Revised Rinex header created by UCSD GPS archive for        COMMENT
GSAC on 27-Jun-2003 (2003:178) 16:37:47 GMT                 COMMENT
For assistance contact dagnew@ucsd.edu                      COMMENT
or anderson@python.ucsd.edu                                 COMMENT
                                                            COMMENT
FORD RM NO2 1974                                            MARKER NAME
3924                                                        MARKER NUMBER
-Unknown- YOLO_COUNTY                                       OBSERVER / AGENCY
220223924 TRIMBLE 4700 NP 1.30; SP 1.43                     REC # / TYPE / VERS
0220063966 TR GEOD L1/L2 GP                                 ANT # / TYPE
 -2620322.5215 -4237724.8884  3968615.6176                  APPROX POSITION XYZ
        2.0000        0.0000        0.0000                  ANTENNA: DELTA H/E/N
     1     1     0                                          WAVELENGTH FACT L1/2
     7    C1    L1    L2    P1    P2    S1    S2            # / TYPES OF OBSERV
     0                                                      INTERVAL
  2002     7    11    15     1    0.000000                  TIME OF FIRST OBS
  2002     7    11    15    46   15.000000                  TIME OF LAST OBS
                                                            END OF HEADER
 02  7 11 15  1  0.0000000  0  6G 6G10G15G17G18G23
  20318431.0314     -20990.51759    -16654.56158                  20318429.7974
        51.0004         44.0004
  22400524.3984      85667.49759     46375.49157                  22400524.9024
        45.7504         39.2504
  21980098.1954     -87902.71259    -56146.74158                  21980097.2734
        48.7504         40.5004
  21361617.2584     -64511.41559    -43651.59858                  21361616.3984
        50.5004         43.2504
  23301361.1484    -122243.64859    -84281.19857                  23301361.3094
        45.0004         34.2504
  20779608.4924     -13046.74059    -11970.32158                  20779607.0554
        51.5004         44.2504
 02  7 11 15  1 15.0000000  0  7G 6G10G15G17G18G23G26
  20316808.7814     -29516.13849    -23297.90348                  20316807.3204
        51.5004         43.5004
  22407585.2894     122771.09349     75287.37447                  22407585.7584
        46.5004         39.0004
  21973012.7974    -125136.99149    -85160.44048                  21973011.8634
        48.0004         40.0004
  21356468.3444     -91568.96049    -64735.37648                  21356467.7274
        50.0004         43.7504
  23290406.3834    -179810.43249   -129138.39847                  23290406.7664
        44.5004         34.5004
  20778638.0704     -18146.83149    -15944.40348                  20778636.8204
        51.7504         44.2504
  23429755.9844    -138287.13559    -87769.50057                  23429757.5744
        43.7504         29.5004
 02  7 11 15  1 30.0000000  0  8G 6G10G15G17G18G23G26G29
  20315255.8444     -37677.22549    -29657.18748                  20315254.1524
        50.5004         44.0004
  22414713.0004     160226.91949    104473.72147                  22414713.0164
        46.5004         38.7504
  21965988.1414    -162050.20749   -113923.96848                  21965987.3094
        47.2504         39.7504
  21351380.4144    -118305.67249    -85569.15248                  21351379.5944
        50.0004         43.0004
  23279511.4064    -237064.22349   -173751.67947                  23279511.7384
        45.2504         35.2504
  20777743.1804     -22849.69149    -19608.95948                  20777741.1804
        51.0004         44.2504
  23421260.5634    -182931.91349   -122557.58547                  23421262.1024
        44.5004         29.5004
  23545514.5704     -82165.61959    -62950.12757                  23545515.6134
        43.7504         31.0004
 02  7 11 15  1 45.0000000  0  8G 6G10G15G17G18G23G26G29
  20313776.2114     -45451.79849    -35715.31248                  20313775.0434
        50.5004         44.0004
  22421911.7504     198056.50949    133951.28747                  22421912.0314
        46.5004         38.7504
  21959029.0314    -198620.57349   -142420.35048                  21959028.3094
        47.5004         40.0004
  21346358.0164    -144699.58949   -106135.83548                  21346357.5744
        50.0004         43.5004
  23268680.2504    -293982.97849   -218103.91347                  23268680.7384
        45.5004         35.0004
  20776927.6804     -27133.60749    -22947.09348                  20776926.6334
        52.0004         44.5004
  23412832.6884    -227220.37249   -157068.02947                  23412834.5164
        44.5004         28.7504
  23539151.8594    -115602.71849    -89004.97747                  23539153.0084
        42.7504         31.0004
 02  7 11 15  2  0.0000000  0  8G 6G10G15G17G18G23G26G29
  20312370.6254     -52838.72449    -41471.37248                  20312369.3484
        50.5004         44.2504
  22429181.7034     236260.52149    163720.62247                  22429181.6294
        45.0004         39.0004
  21952134.8984    -234847.03449   -170648.74247                  21952134.1484
        45.7504         39.0004
  21341400.8674    -170749.82349   -126434.71648                  21341399.7814
        49.7504         43.2504
  23257913.1414    -350565.31449   -262194.02947                  23257912.8324
        46.2504         34.5004
  20776192.5864     -30997.61049    -25958.00848                  20776191.1564
        51.5004         44.2504
  23404472.6804    -271151.15649   -191299.77047                  23404474.2974
        45.0004         29.5004
  23532859.8054    -148669.52649   -114771.28147                  23532860.8554
        43.7504         31.0004
 02  7 11 15  2 15.0000000  0  8G 6G10G15G17G18G23G26G29
  20311036.8364     -59848.21649    -46933.30748                  20311035.5514
        50.2504         44.0004
  22436520.8364     274828.07749    193773.24247                  22436520.8134
        45.5004         38.7504
  21945304.8204    -270739.98549   -198617.24547                  21945304.8874
        46.5004         39.0004
  21336506.8984    -196466.75149   -146473.87448                  21336506.0984
        50.5004         44.0004
  23247207.5864    -406821.33049   -306029.84947                  23247207.3484
        46.0004         34.5004
  20775535.3754     -34452.16749    -28649.85948                  20775534.3164
        51.5004         44.7504
  23396179.0164    -314734.12749   -225260.49447                  23396181.3554
        44.5004         29.7504
  23526635.3054    -181375.90749   -140256.71747                  23526636.7544
        42.2504         31.2504
 02  7 11 15  2 30.0000000  0  8G 6G10G15G17G18G23G26G29
  20309773.9924     -66486.41749    -52105.94848                  20309772.8204
        51.0004         44.0004
  22443928.3984     313752.62949    224104.05448                  22443928.0474
        46.5004         39.5004
  21938537.1174    -306305.65249   -226330.74847                  21938536.9144
        46.7504         39.0004
  21331675.6254    -221856.66649   -166258.21148                  21331674.9144
        49.2504         43.7504
  23236563.4064    -462756.87449   -349615.96647                  23236563.7344
        44.0004         34.0004
  20774954.5314     -37503.57449    -31027.58048                  20774953.6764
        51.5004         44.7504
  23387950.9064    -357975.07849   -258954.69447                  23387952.9574
        44.5004         29.2504
  23520479.6884    -213727.87849   -165466.00247                  23520480.3324
        42.0004         31.0004
 02  7 11 15  2 45.0000000  0  8G 6G10G15G17G18G23G26G29
  20308580.0234     -72758.85549    -56993.57448                  20308578.6804
        50.0004         44.0004
  22451401.8914     353028.14649    254708.31347                  22451402.5314
        46.2504         39.2504
  21931830.5394    -341549.68649   -253793.63248                  21931829.8874
        46.0004         39.7504
  21326904.9774    -246925.29849   -185792.21148                  21326904.4064
        50.2504         43.5004
  23225979.2424    -518377.43649   -392956.62447                  23225979.2034
        45.7504         33.7504
  20774449.7974     -40157.65149    -33095.69548                  20774448.4654
        51.5004         44.5004
  23379786.3204    -400879.35849   -292386.54247                  23379788.2114
        45.5004         29.7504
  23514389.7344    -245730.77449   -190403.28147                  23514390.5084
        45.0004         31.5004
 02  7 11 15  3  0.0000000  0  8G 6G10G15G17G18G23G26G29
  20307455.4694     -78668.12449    -61598.21248                  20307454.1454
        50.5004         44.0004
  22458941.9844     392651.67149    285583.76447                  22458942.4414
        44.5004         39.0004
  21925184.4614    -376474.77049   -281007.98248                  21925183.4414
        45.2504         39.5004
  21322195.4144    -271675.29649   -205077.92448                  21322194.4344
        50.0004         44.0004
  23215454.4924    -573685.47649   -436053.76547                  23215454.4804
        45.2504         34.0004
  20774019.6024     -42417.21249    -34856.40348                  20774018.3794
        51.7504         44.7504
  23371685.5704    -443449.17249   -325557.79147                  23371687.3204
        45.0004         30.5004
  23508365.5634    -277386.94549   -215070.37947                  23508366.5394
        43.7504         31.7504
 02  7 11 15  3 15.0000000  0  8G 6G10G15G17G18G23G26G29
  20306398.7194     -84221.97749    -65925.89548                  20306397.3404
        50.5004         44.0004
  22466546.7344     432614.87049    316723.90347                  22466547.5164
        45.2504         39.0004
  21918597.6804    -411088.69749   -307979.87548                  21918597.0274
        45.7504         39.5004
  21317544.6414    -296114.45849   -224121.42048                  21317543.8244
        50.5004         44.0004
  23204987.7034    -628688.81649   -478913.49847                  23204987.0514
        45.7504         33.5004
  20773663.5234     -44290.20349    -36315.88848                  20773661.8014
        51.2504         44.5004
  23363647.1484    -485692.05149   -358474.28447                  23363648.8714
        44.7504         29.5004
  23502405.9774    -308703.98749   -239473.24347                  23502407.1844
        42.0004         32.5004
 02  7 11 15  3 30.0000000  0  8G 6G10G15G17G18G23G26G29
  20305407.8444     -89427.78649    -69982.39048                  20305407.0704
        49.5004         43.7504
  22474215.1254     472909.82049    348122.53948                  22474215.1644
        45.5004         39.5004
  21912068.6484    -445399.04249   -334715.20248                  21912068.0164
        45.7504         39.7504
  21312952.0314    -320250.55749   -242928.76848                  21312951.3014
        50.5004         43.7504
  23194577.5864    -683394.68949   -521541.41947                  23194577.0704
        45.0004         33.5004
  20773378.8134     -45784.30449    -37480.11948                  20773377.7074
        51.0004         44.0004
  23355669.0704    -527615.13149   -391141.57047                  23355671.0744
        44.7504         29.7504
  23496509.6414    -339689.12549   -263617.45847                  23496510.6254
        42.2504         32.7504
 02  7 11 15  3 45.0000000  0  8G 6G10G15G17G18G23G26G29
  20304481.0004     -94300.44449    -73779.28048                  20304479.9024
        50.5004         43.7504
  22481942.9224     513521.16949    379767.70747                  22481943.4964
        45.5004         39.2504
  21905594.4384    -479420.89849   -361225.73548                  21905594.1094
        47.2504         40.2504
  21308413.4384    -344098.58849   -261511.64748                  21308412.6334
        50.0004         43.2504
  23184221.0394    -737817.67649   -563948.92147                  23184221.3164
        44.0004         33.5004
  20773163.5004     -46914.63149    -38360.90148                  20773162.4454
        51.0004         44.2504
  23347749.2194    -569233.00249   -423571.02047                  23347751.0594
        44.2504         30.5004
  23490674.1564    -370356.93549   -287514.40647                  23490674.6954
        42.5004         32.2504
 02  7 11 15  4  0.0000000  0  8G 6G10G15G17G18G23G26G29
  20303615.9064     -98846.45349    -77321.64348                  20303614.6054
        50.0004         44.0004
  22489730.4384     554441.89149    411653.95547                  22489729.8324
        46.0004         39.0004
  21899173.9694    -513160.86549   -387516.60848                  21899173.3484
        46.5004         40.7504
  21303929.1644    -367665.13449   -279875.18548                  21303928.4224
        50.0004         43.5004
  23173917.5784    -791964.18849   -606140.98647                  23173917.1914
        45.0004         34.0004
  20773016.9924     -47687.87649    -38963.43748                  20773015.2704
        51.0004         44.7504
  23339886.7974    -610551.78149   -455767.45647                  23339888.5864
        43.5004         29.5004
  23484897.1644    -400713.90149   -311169.14347                  23484898.1684
        42.5004         31.2504
 02  7 11 15  4 15.0000000  0  8G 6G10G15G17G18G23G26G29
  20302811.1174    -103075.31049    -80616.85148                  20302809.7384
        50.5004         44.0004
  22497573.5634     595661.99049    443773.49047                  22497573.2544
        45.2504         39.0004
  21892805.2344    -546628.46149   -413595.25248                  21892804.9574
        47.0004         40.5004
  21299496.1174    -390960.03249   -298027.05248                  21299495.4844
        49.5004         43.5004
  23163664.3444    -845843.43149   -648124.77547                  23163663.9024
        45.2504         34.2504
  20772935.8204     -48113.76249    -39295.30448                  20772934.3914
        52.0004         44.5004
  23332079.5084    -651580.73249   -487738.01347                  23332081.0594
        44.5004         30.5004
  23479178.1174    -430769.19149   -334588.82147                  23479178.7774
        43.2504         31.2504
 02  7 11 15  4 30.0000000  0  8G 6G10G15G17G18G23G26G29
  20302065.9384    -106991.75649    -83668.63748                  20302064.4884
        50.7504         44.0004
  22505474.2034     637176.19549    476122.19847                  22505473.0314
        46.0004         38.2504
  21886487.2734    -579828.62049   -439465.48248                  21886487.5864
        46.5004         40.5004
  21295113.8984    -413988.03549   -315970.95948                  21295113.5864
        50.2504         44.0004
  23153461.6024    -899460.09049   -689903.97447                  23153460.9774
        45.2504         34.2504
  20772920.1024     -48197.28849    -39360.39948                  20772918.5634
        52.0004         44.5004
  23324326.4774    -692324.33549   -519486.23947                  23324328.0004
        43.7504         30.2504
  23473514.9224    -460527.53949   -357777.08347                  23473515.7274
        43.2504         31.7504
 02  7 11 15  4 45.0000000  0  8G 6G10G15G17G18G23G26G29
  20301377.8204    -110607.34649    -86485.98448                  20301376.9064
        51.0004         44.0004
  22513427.2584     678972.47549    508690.70147                  22513427.4774
        46.0004         38.2504
  21880218.2344    -612772.91549   -465136.35748                  21880218.1644
        47.5004         40.7504
  21290780.5474    -436760.83149   -333715.98148                  21290780.1684
        50.0004         44.0004
  23143306.5704    -952825.55749   -731487.44147                  23143305.8094
        46.0004         34.5004
  20772966.5554     -47950.18949    -39167.85548                  20772965.7894
        51.7504         44.5004
  23316624.8204    -732793.87149   -551020.90547                  23316627.2194
        45.0004         31.7504
  23467906.6174    -490000.24049   -380742.78547                  23467907.1884
        43.5004         32.0004
 02  7 11 15  5  0.0000000  0  8G 6G10G15G17G18G23G26G29
  20300745.1414    -113932.30249    -89076.87348                  20300744.5704
        49.7504         44.0004
  22521432.3594     721040.26349    541470.75847                  22521432.1564
        45.7504         38.5004
  21873995.7664    -645471.75149   -490615.95748                  21873995.8404
        46.2504         40.5004
  21286493.6414    -459288.84349   -351270.28648                  21286493.3204
        50.0004         43.5004
  23133197.3204   -1005949.98449   -772883.06447                  23133197.2774
        46.0004         34.7504
  20773074.8914     -47382.93049    -38725.84648                  20773073.7854
        51.0004         44.7504
  23308974.3134    -772999.17649   -582349.66647                  23308975.9734
        44.5004         30.7504
  23462350.1724    -519197.23249   -403493.63947                  23462351.3674
        43.5004         32.5004
 02  7 11 15  5 15.0000000  0  8G 6G10G15G17G18G23G26G29
  20300165.7194    -116976.82049    -91449.24748                  20300164.8524
        50.7504         43.7504
  22529487.1724     763368.85649    574454.04747                  22529487.2194
        46.0004         38.0004
  21867818.3284    -677935.48849   -515912.37848                  21867818.0554
        46.5004         40.5004
  21282251.1804    -481582.52249   -368641.98448                  21282250.9304
        50.0004         43.7504
  23123131.5864   -1058843.45649   -814098.74047                  23123131.5354
        46.5004         35.0004
  20773241.4844     -46505.93949    -38042.48748                  20773240.5944
        51.2504         44.5004
  23301371.7504    -812950.25849   -613480.35547                  23301374.2304
        44.2504         31.0004
  23456844.8594    -548128.58849   -426037.53647                  23456845.4964
        44.0004         32.2504
 02  7 11 15  5 30.0000000  0  8G 6G10G15G17G18G23G26G29
  20299638.6094    -119746.96549    -93607.80348                  20299637.2154
        50.5004         43.5004
  22537590.6094     805951.76949    607635.49847                  22537591.2034
        45.2504         38.5004
  21861684.1564    -710170.28049   -541030.39848                  21861684.2854
        47.0004         40.7504
  21278052.1884    -503647.87249   -385835.76348                  21278051.7304
        50.0004         43.5004
  23113109.2114   -1111511.71149   -855138.90547                  23113108.7274
        45.0004         34.5004
  20773466.3444     -45325.52849    -37122.69648                  20773465.2774
        51.0004         44.2504
  23293816.6174    -852652.80149   -644417.33247                  23293818.7464
        43.7504         32.0004
  23451389.2034    -576800.18149   -448378.98947                  23451390.2384
        44.0004         32.2504
 02  7 11 15  5 45.0000000  0  8G 6G10G15G17G18G23G26G29
  20299161.6804    -122252.60649    -95560.25648                  20299160.3594
        50.2504         43.7504
  22545740.6564     848778.47849    641006.93147                  22545740.5984
        46.0004         38.5004
  21855591.7274    -742186.00849   -565977.71548                  21855591.2704
        47.0004         40.5004
  21273895.1564    -525495.00549   -402859.50648                  21273894.4304
        50.0004         44.0004
  23103128.0084   -1163964.62149   -896011.30047                  23103126.8754
        45.7504         34.5004
  20773746.6884     -43851.72149    -35974.28748                  20773745.7384
        51.0004         44.2504
  23286307.0634    -892116.37149   -675168.13747                  23286309.0004
        45.5004         31.7504
  23445980.9694    -605221.64749   -470525.54047                  23445981.6644
        43.2504         32.0004
 02  7 11 15  6  0.0000000  0  8G 6G10G15G17G18G23G26G29
  20298734.6564    -124498.09049    -97309.98948                  20298733.5044
        49.2504         43.7504
  22553935.6254     891844.24449    674564.64847                  22553935.9804
        44.5004         38.0004
  21849540.3364    -773987.18349   -590757.85348                  21849540.0514
        47.2504         41.0004
  21269778.5704    -547128.52249   -419716.78848                  21269777.9804
        51.0004         43.7504
  23093186.9844   -1216206.42849   -936719.18047                  23093185.8054
        46.0004         34.5004
  20774081.9534     -42089.11149    -34600.82648                  20774080.6884
        51.5004         44.5004
  23278842.0634    -931345.16149   -705735.97547                  23278844.0004
        44.5004         32.0004
  23440619.0314    -633397.24149   -492480.51947                  23440620.0664
        43.5004         31.7504
 02  7 11 15  6 15.0000000  0  8G 6G10G15G17G18G23G26G29
  20298355.7114    -126489.05449    -98861.41048                  20298354.3134
        51.0004         43.7504
  22562175.1954     935142.93649    708303.83947                  22562175.2934
        46.2504         38.5004
  21843528.6414    -805579.60649   -615375.31848                  21843528.0004
        47.0004         40.5004
  21265701.0474    -568554.19849   -436412.11448                  21265700.8404
        50.2504         44.2504
  23083284.2894   -1268242.62649   -977266.84347                  23083283.9574
        46.2504         35.2504
  20774471.4384     -40043.60349    -33006.93248                  20774470.3244
        51.2504         44.5004
  23271420.8984    -970344.47149   -736125.00547                  23271422.4184
        45.0004         32.0004
  23435302.3284    -661332.35549   -514248.09147                  23435304.4454
        43.5004         31.7504
 02  7 11 15  6 30.0000000  0  8G 6G10G15G17G18G23G26G29
  20298025.0314    -128226.29849   -100215.12448                  20298023.8164
        50.5004         43.7504
  22570458.7734     978673.12349    742223.43447                  22570459.2934
        45.5004         37.5004
  21837556.7424    -836964.23849   -639830.86148                  21837555.9344
        47.0004         40.7504
  21261663.1884    -589772.87849   -452946.15548                  21261662.9804
        50.2504         44.0004
  23073421.3594   -1320073.92749  -1017654.84147                  23073421.0234
        46.2504         34.5004
  20774914.1724     -37716.27749    -31193.43948                  20774912.8284
        51.2504         44.7504
  23264042.4064   -1009114.80749   -766335.60147                  23264044.7974
        43.7504         31.2504
  23430032.0394    -689027.64849   -535828.80447                  23430033.8634
        41.0004         31.7504
 02  7 11 15  6 45.0000000  0  8G 6G10G15G17G18G23G26G29
  20297739.1564    -129727.67949   -101385.03448                  20297738.0434
        51.0004         44.0004
  22578782.7034    1022416.54549    776309.19047                  22578783.5824
        45.0004         37.2504
  21831620.7194    -868159.00849   -664138.47148                  21831619.6054
        48.2504         40.5004
  21257661.6024    -610802.75849   -469333.07248                  21257661.0084
        49.7504         44.0004
  23063593.6954   -1371717.93749  -1057896.90047                  23063592.7114
        45.0004         34.2504
  20775407.1024     -35125.19049    -29174.41048                  20775406.2304
        51.5004         44.7504
  23256704.9224   -1047673.77049   -796381.52447                  23256707.2034
        43.2504         31.2504
  23424804.2504    -716500.82649   -557236.45947                  23424805.6564
        43.5004         31.7504
 02  7 11 15  7  0.0000000  0  9G 6G10G15G17G18G30G23G26G29
  20297499.6174    -130988.06249   -102367.16148                  20297498.3204
        50.7504         43.5004
  22587148.5864    1066377.94649    810564.78447                  22587149.0594
        44.5004         37.5004
  21825721.3524    -899158.86649   -688294.18948                  21825720.7344
        49.0004         40.5004
  21253696.4224    -631638.53549   -485568.74748                  21253696.3714
        49.5004         43.7504
  23053803.1564   -1423169.44949  -1097988.97147                  23053801.9494
        45.5004         34.5004
  22992792.6884     117406.44059     74976.58157                  22992793.5744
        47.2504         35.5004
  20775951.4064     -32265.41749    -26946.03048                  20775950.5984
        52.5004         44.7504
  23249408.7274   -1086015.75249   -826258.36447                  23249410.5864
        44.0004         30.0004
  23419619.5864    -743746.38549   -578466.72047                  23419620.7814
        42.7504         31.2504
 02  7 11 15  7 15.0000000  0  9G 6G10G15G17G18G30G23G26G29
  20297303.7814    -132015.90849   -103168.08048                  20297302.6374
        50.7504         43.2504
  22595553.9454    1110548.26349    844983.19347                  22595554.2664
        46.0004         36.7504
  21819857.4454    -929972.47349   -712304.77648                  21819856.6134
        49.2504         40.0004
  21249767.1414    -652289.12749   -501660.11048                  21249766.6484
        49.7504         43.7504
  23044047.0704   -1474436.78949  -1137937.53447                  23044046.1564
        45.7504         35.0004
  23002539.6954     168626.87649    114888.54647                  23002540.3014
        47.0004         35.0004
  20776545.4454     -29145.69149    -24515.07648                  20776544.1764
        51.7504         44.5004
  23242151.4144   -1124149.04249   -855972.57447                  23242153.6414
        42.5004         30.0004
  23414476.4384    -770772.79849   -599526.22747                  23414478.0044
        43.2504         31.5004
 02  7 11 15  7 30.0000000  0  9G 6G10G15G17G18G30G23G26G29
  20297151.0474    -132819.92449   -103794.59448                  20297149.7734
        50.0004         43.5004
  22603997.2344    1154918.33849    879557.23247                  22603997.6644
        45.5004         37.5004
  21814027.6884    -960608.59149   -736177.07548                  21814027.0864
        48.0004         40.2504
  21245870.8054    -672763.22249   -517613.95248                  21245870.8244
        49.5004         43.7504
  23034324.4924   -1525528.55049  -1177749.27647                  23034323.5514
        45.0004         34.7504
  23012317.3204     220010.90049    154927.96547                  23012318.5904
        46.2504         35.2504
  20777186.6024     -25775.02249    -21888.59748                  20777185.4264
        51.2504         44.5004
  23234932.9694   -1162082.13449   -885530.78647                  23234935.1844
        43.0004         30.0004
  23409373.0944    -797588.40849   -620421.47147                  23409374.6414
        42.0004         31.0004
 02  7 11 15  7 45.0000000  0  9G 6G10G15G17G18G30G23G26G29
  20297040.9384    -133399.07549   -104245.88848                  20297039.4574
        51.2504         43.2504
  22612478.7034    1199488.70249    914287.35047                  22612478.6374
        45.2504         37.5004
  21808231.7734    -991066.29249   -759910.33348                  21808230.5274
        49.5004         40.2504
  21242008.5864    -693059.97749   -533429.60848                  21242008.0594
        49.2504         43.5004
  23024635.6254   -1576443.49449  -1217423.23447                  23024634.9884
        45.5004         34.0004
  23022126.5704     271559.05549    195095.29247                  23022127.7034
        46.5004         34.0004
  20777875.7894     -22152.57849    -19065.92448                  20777874.5314
        50.7504         45.0004
  23227753.2664   -1199813.67449   -914931.95947                  23227755.0314
        43.5004         30.5004
  23404311.0554    -824192.20049   -641151.67347                  23404311.4654
        40.0004         31.2504
 02  7 11 15  8  0.0000000  0  9G 6G10G15G17G18G30G23G26G29
  20296972.7734    -133758.69249   -104526.11748                  20296971.4774
        51.5004         43.7504
  22620997.0084    1244253.47349    949168.95347                  22620997.4694
        46.0004         37.5004
  21802468.3674   -1021351.06149   -783508.85448                  21802468.0594
        48.0004         40.5004
  21238178.9614    -713185.04249   -549111.49248                  21238178.3954
        50.0004         44.0004
  23014979.7424   -1627186.82249  -1256963.46647                  23014978.5314
        46.5004         34.2504
  23031966.4224     323265.49949    235385.93947                  23031967.3094
        46.0004         34.0004
  20778612.0784     -18283.96749    -16051.44448                  20778611.0004
        50.7504         45.0004
  23220610.8364   -1237348.71349   -944180.02447                  23220613.0164
        43.0004         30.5004
  23399288.0704    -850589.28149   -661720.81247                  23399288.5084
        41.2504         31.0004
 02  7 11 15  8 15.0000000  0  9G 6G10G15G17G18G30G23G26G29
  20296945.5554    -133899.23749   -104635.64048                  20296944.5164
        51.0004         43.5004
  22629552.0234    1289211.83149    984201.40247                  22629552.2814
        44.7504         36.7504
  21796738.6564   -1051463.47449   -806973.07248                  21796737.7274
        48.7504         40.7504
  21234381.4064    -733138.79749   -564659.87348                  21234381.0474
        49.5004         44.0004
  23005356.2504   -1677758.93549  -1296370.29647                  23005355.2624
        46.0004         35.0004
  23041835.6644     375129.27649    275799.21847                  23041836.7894
        46.2504         33.7504
  20779395.2504     -14169.77049    -12845.58648                  20779393.9924
        51.5004         44.7504
  23213505.7894   -1274687.20949   -973274.93047                  23213507.4104
        43.7504         29.2504
  23394304.2584    -876779.79749   -682128.97647                  23394304.6054
        43.5004         31.5004
 02  7 11 15  8 30.0000000  0  9G 6G10G15G17G18G30G23G26G29
  20296959.8364    -133825.51549   -104578.21948                  20296958.6334
        49.7504         43.5004
  22638144.0704    1334358.51749   1019380.60947                  22638143.2344
        44.0004         36.7504
  21791040.3364   -1081408.44549   -830306.81248                  21791039.7154
        47.2504         41.5004
  21230616.2584    -752926.27149   -580078.67848                  21230615.6454
        49.7504         43.5004
  22995764.4384   -1728164.27949  -1335647.15647                  22995763.5474
        46.0004         34.7504
  23051733.9304     427145.13549    316330.99647                  23051734.7584
        45.5004         33.5004
  20780223.8524      -9815.03449     -9452.28848                  20780222.6684
        51.0004         44.5004
  23206436.5864   -1311833.83849  -1002220.28847                  23206438.5944
        43.2504         31.0004
  23389358.8204    -902768.45249   -702379.85047                  23389359.5044
        43.5004         32.0004
 02  7 11 15  8 45.0000000  0  9G 6G10G15G17G18G30G23G26G29
  20297013.6724    -133543.37749   -104358.38848                  20297012.0824
        51.0004         43.5004
  22646769.4774    1379687.20949   1054701.63547                  22646769.6524
        46.0004         37.5004
  21785372.4694   -1111191.82049   -853514.63548                  21785372.4224
        48.5004         41.0004
  21226881.3524    -772553.38049   -595372.53448                  21226881.0004
        49.2504         43.5004
  22986203.0004   -1778408.70349  -1374798.65247                  22986202.3054
        45.5004         35.0004
  23061660.2504     479306.74249    356976.32547                  23061661.2344
        45.5004         33.5004
  20781097.0864      -5225.83349     -5876.30048                  20781095.9534
        51.0004         45.2504
  23199403.2814   -1348794.14249  -1031020.50647                  23199405.7194
        44.0004         31.5004
  23384450.7664    -928560.77949   -722477.75647                  23384451.5634
        43.5004         31.0004
 02  7 11 15  9  0.0000000  0  9G 6G10G15G17G18G30G23G26G29
  20297106.1564    -133056.71849   -103979.18848                  20297105.0164
        50.5004         43.0004
  22655429.5474    1425193.47149   1090161.00647                  22655429.0664
        44.2504         37.7504
  21779734.6884   -1140817.68749   -876599.72248                  21779734.3674
        49.0004         40.5004
  21223176.3674    -792024.30049   -610544.68348                  21223175.9844
        50.2504         44.0004
  22976671.2344   -1828496.00549  -1413827.69947                  22976671.3014
        44.5004         35.0004
  23071613.4384     531609.67749    397731.78347                  23071614.4924
        46.0004         33.2504
  20782014.3984       -406.30849     -2120.83848                  20782013.0554
        51.5004         45.0004
  23192404.5234   -1385571.69449  -1059678.29647                  23192406.7974
        44.0004         29.7504
  23379578.7424    -954160.62449   -742425.63647                  23379579.8054
        41.7504         32.0004
 02  7 11 15  9 15.0000000  0  9G 6G10G15G17G18G30G23G26G29
  20297237.3444    -132367.06049   -103441.80248                  20297235.8324
        50.2504         43.5004
  22664121.9534    1470875.30149   1125757.21747                  22664122.2234
        46.0004         37.5004
  21774126.7194   -1170287.71949   -899563.36948                  21774126.4574
        47.5004         40.5004
  21219500.6644    -811340.68349   -625596.40648                  21219499.7274
        49.7504         43.7504
  22967170.3754   -1878427.46749  -1452735.31247                  22967169.2464
        45.7504         35.0004
  23081592.2034     584051.80249    438595.71147                  23081593.6484
        45.2504         33.0004
  20782974.7034       4641.70449      1812.67248                  20782973.5944
        51.0004         44.5004
  23185440.4924   -1422167.73249  -1088194.65447                  23185442.7664
        44.7504         31.7504
  23374743.8134    -979569.27449   -762224.54847                  23374744.7734
        43.0004         32.0004
 02  7 11 15  9 30.0000000  0  9G 6G10G15G17G18G30G23G26G29
  20297405.8754    -131482.24149   -102752.34348                  20297404.6024
        50.0004         43.5004
  22672846.9844    1516724.49049   1161483.82447                  22672846.7234
        44.5004         37.2504
  21768547.0234   -1199609.83049   -922411.76048                  21768545.8834
        45.7504         40.2504
  21215852.8914    -830510.42049   -640533.85948                  21215851.7974
        50.5004         44.2504
  22957696.4224   -1928210.82849  -1491527.53447                  22957695.7974
        45.2504         34.5004
  23091597.0004     636624.95149    479561.73347                  23091597.9654
        45.0004         32.2504
  20783977.3834       9910.17249      5917.96348                  20783976.1454
        51.7504         44.5004
  23178509.9144   -1458589.83749  -1116575.47247                  23178511.9964
        43.7504         30.5004
  23369943.6094   -1004794.48149   -781880.51347                  23369944.8714
        45.2504         32.7504
 02  7 11 15  9 45.0000000  0  9G 6G10G15G17G18G30G23G26G29
  20297611.3674    -130401.58549   -101910.29048                  20297610.2034
        50.5004         43.0004
  22681603.5784    1562741.14549   1197340.92147                  22681603.8404
        45.2504         37.7504
  21762995.4454   -1228783.47449   -945144.46748                  21762994.7074
        47.7504         40.2504
  21212232.9454    -849533.01449   -655356.66748                  21212232.1094
        50.0004         44.0004
  22948251.4224   -1977845.23749  -1530203.67847                  22948250.7154
        45.5004         35.2504
  23101626.3674     689329.31549    520629.97847                  23101627.6374
        46.2504         32.2504
  20785021.9774      15399.56749     10195.39248                  20785020.5594
        51.5004         44.5004
  23171612.9224   -1494836.95849  -1144819.97147                  23171614.1134
        44.2504         31.2504
  23365178.2424   -1029835.13249   -801392.67447                  23365180.1214
        44.0004         33.2504
 02  7 11 15 10  0.0000000  0  9G 6G10G15G17G18G30G23G26G29
  20297854.1804    -129125.46549   -100915.93048                  20297852.9104
        50.5004         43.5004
  22690391.8984    1608924.37549   1233327.81647                  22690391.9144
        46.2504         37.0004
  21757472.2274   -1257809.10649   -967761.84748                  21757471.1724
        46.5004         40.2504
  21208640.8444    -868409.00949   -670065.24548                  21208639.9304
        49.5004         44.0004
  22938834.9144   -2027330.87649  -1568763.91447                  22938834.4844
        45.2504         35.5004
  23111680.4924     742163.95249    561799.76047                  23111681.9774
        46.0004         33.2504
  20786108.4224      21109.21349     14644.45948                  20786107.6914
        51.7504         44.7504
  23164748.0474   -1530909.24949  -1172928.20347                  23164749.5124
        44.5004         30.0004
  23360448.5704   -1054691.65749   -820761.36147                  23360449.5744
        44.7504         33.7504
 02  7 11 15 10 15.0000000  0  9G 6G10G15G17G18G30G23G26G29
  20298133.5704    -127658.49649    -99772.85548                  20298132.4734
        50.5004         43.7504
  22699210.9924    1655269.12849   1269440.57247                  22699210.3404
        45.0004         36.7504
  21751975.7814   -1286691.51549   -990267.61248                  21751975.2274
        45.7504         40.5004
  21205076.2274    -887143.13849   -684663.26348                  21205075.0824
        50.5004         44.0004
  22929445.1254   -2076672.39349  -1607211.81847                  22929444.8054
        46.7504         35.5004
  23121757.8754     795123.76249    603067.08447                  23121759.1454
        45.5004         33.0004
  20787235.9774      27034.29849     19261.40448                  20787234.8524
        51.5004         45.0004
  23157916.1804   -1566810.96549  -1200903.51447                  23157917.5904
        44.5004         31.0004
  23355752.8834   -1079368.35849   -839989.91747                  23355753.9384
        45.0004         34.0004
 02  7 11 15 10 30.0000000  0  9G 6G10G15G17G18G30G23G26G29
  20298449.3364    -125997.73949    -98478.77948                  20298447.9654
        50.5004         43.0004
  22708061.4224    1701777.80849   1305681.06847                  22708061.2034
        44.2504         37.0004
  21746507.4694   -1315427.86949  -1012659.56248                  21746507.2854
        48.5004         41.0004
  21201538.6724    -905732.56749   -699148.53648                  21201537.2974
        50.2504         44.0004
  22920084.0784   -2125866.59149  -1645544.95347                  22920083.3364
        47.0004         35.5004
  23131860.8054     848211.09449    644433.75047                  23131861.7234
        46.5004         33.0004
  20788404.9454      33177.49949     24048.30248                  20788404.2774
        51.5004         45.0004
  23151117.1484   -1602538.94549  -1228743.46847                  23151118.8834
        45.0004         30.7504
  23351092.2424   -1103862.18049   -859075.99047                  23351093.2274
        46.2504         34.5004
 02  7 11 15 10 45.0000000  0  9G 6G10G15G17G18G30G23G26G29
  20298801.2974    -124148.75449    -97038.02748                  20298800.2344
        49.0004         43.5004
  22716941.7734    1748444.44949   1342044.65547                  22716941.4144
        45.0004         36.7504
  21741065.6954   -1344023.63649  -1034941.94948                  21741065.2704
        46.5004         41.5004
  21198027.3674    -924183.14149   -713525.59848                  21198026.5744
        50.0004         44.0004
  22910749.4064   -2174918.97049  -1683767.56547                  22910748.4224
        44.5004         35.0004
  23141986.3594     901420.05149    685895.19347                  23141987.4804
        46.2504         32.7504
  20789614.3524      39532.98649     29000.62748                  20789613.4184
        51.2504         44.7504
  23144351.2344   -1638098.47149  -1256452.13447                  23144351.9734
        45.7504         31.5004
  23346465.4224   -1128178.61849   -878023.81847                  23346465.6334
        44.2504         34.7504
 02  7 11 15 11  0.0000000  0  9G 6G10G15G17G18G30G23G26G29
  20299189.0004    -122111.20649    -95450.35148                  20299188.1644
        48.5004         43.7504
  22725852.2894    1795269.02949   1378531.29547                  22725851.8794
        44.0004         36.7504
  21735651.2734   -1372478.65649  -1057114.69748                  21735651.0124
        47.2504         41.7504
  21194542.7114    -942494.59349   -727794.27148                  21194542.1214
        49.5004         43.7504
  22901442.1954   -2223828.99349  -1721879.26447                  22901441.4774
        44.7504         35.5004
  23152134.6174     954750.38749    727451.21747                  23152135.7424
        45.7504         32.5004
  20790864.7344      46100.91149     34118.47648                  20790863.0434
        51.5004         44.7504
  23137616.4844   -1673488.80749  -1284028.99447                  23137617.7384
        45.5004         31.7504
  23341871.4454   -1152316.92049   -896832.87547                  23341872.1954
        44.7504         34.5004
 02  7 11 15 11 15.0000000  0  9G 6G10G15G17G18G30G23G26G29
  20299611.9304    -119889.17849    -93718.90848                  20299611.0394
        49.2504         43.2504
  22734791.6174    1842246.86049   1415137.37347                  22734792.1254
        45.0004         36.5004
  21730262.5394   -1400797.07749  -1079180.98048                  21730262.3794
        46.0004         41.5004
  21191083.9694    -960671.09949   -741957.78548                  21191083.3914
        49.2504         44.2504
  22892161.4454   -2272600.54749  -1759883.05147                  22892160.7774
        45.0004         36.2504
  23162305.2664    1008197.48049    769098.23247                  23162306.0594
        46.5004         31.7504
  20792153.9304      52876.98349     39398.52448                  20792153.0594
        51.5004         44.5004
  23130912.8134   -1708713.81049  -1311477.00747                  23130914.0394
        46.2504         31.7504
  23337311.2664   -1176281.05749   -915506.19247                  23337312.0904
        44.0004         34.5004
 02  7 11 15 11 30.0000000  0  9G 6G10G15G17G18G30G23G26G29
  20300070.3054    -117481.18149    -91842.56848                  20300068.9804
        49.7504         43.2504
  22743761.0704    1889378.91449   1451863.59847                  22743761.1844
        45.2504         37.5004
  21724899.9454   -1428977.69249  -1101139.90748                  21724899.5634
        45.7504         41.0004
  21187650.9144    -978711.47849   -756015.24048                  21187650.0234
        49.7504         44.0004
  22882907.1564   -2321232.09249  -1797777.76047                  22882906.2624
        45.5004         35.5004
  23172498.2584    1061762.47349    810837.10947                  23172498.9384
        47.0004         33.0004
  20793483.2274      59862.36649     44841.66248                  20793481.9804
        51.7504         44.5004
  23124242.1094   -1743771.77249  -1338794.85447                  23124243.0314
        46.5004         32.2504
  23332783.8914   -1200069.45849   -934042.57447                  23332784.9344
        45.0004         33.5004
 02  7 11 15 11 45.0000000  0  9G 6G10G15G17G18G30G23G26G29
  20300562.3444    -114895.15949    -89827.48748                  20300561.2894
        50.2504         43.5004
  22752758.0554    1936656.82549   1488703.49447                  22752757.8874
        45.5004         36.7504
  21719561.8984   -1457028.47049  -1122997.64548                  21719561.6374
        46.2504         41.2504
  21184242.3364    -996623.58949   -769972.73648                  21184241.5944
        49.2504         44.0004
  22873677.8754   -2369731.43949  -1835569.42647                  22873677.0784
        45.0004         36.0004
  23182712.4064    1115436.81049    852661.20047                  23182713.1094
        46.5004         32.2504
  20794850.6024      67048.83649     50441.49948                  20794849.7974
        52.0004         44.5004
  23117600.6644   -1778670.24549  -1365988.43047                  23117601.7194
        46.2504         32.2504
  23328289.7344   -1223689.87449   -952448.06547                  23328290.5314
        45.2504         33.2504
 02  7 11 15 12  0.0000000  0  9G 6G10G15G17G18G30G23G26G29
  20301089.2344    -112125.89549    -87669.63648                  20301087.8014
        50.5004         43.5004
  22761782.7424    1984085.24649   1525660.67247                  22761782.7774
        44.5004         36.2504
  21714249.7894   -1484944.34349  -1144750.28248                  21714249.5084
        47.5004         40.5004
  21180858.9774   -1014402.51449   -783826.45148                  21180858.9534
        49.2504         43.5004
  22864474.8444   -2418093.05049  -1873253.76647                  22864474.1334
        47.2504         36.0004
  23192947.5634    1169225.25649    894574.19547                  23192949.3754
        45.5004         33.2504
  20796257.4454      74441.35749     56201.89248                  20796256.3204
        51.2504         44.7504
  23110991.1484   -1813403.73149  -1393053.44747                  23110992.4534
        43.7504         31.2504
  23323827.5314   -1247136.64049   -970718.26147                  23323828.5784
        44.5004         33.2504
 02  7 11 15 12 15.0000000  0  9G 6G10G15G17G18G30G23G26G29
  20301649.7114    -109180.95849    -85374.89748                  20301648.3874
        50.5004         43.5004
  22770835.3134    2031656.26149   1562728.94447                  22770835.8594
        43.7504         35.7504
  21708961.4534   -1512732.94449  -1166403.73048                  21708961.0274
        48.0004         41.0004
  21177499.9384   -1032055.88049   -797582.32048                  21177499.6294
        48.7504         44.0004
  22855296.9384   -2466324.34649  -1910836.59047                  22855296.4884
        45.7504         36.2504
  23203204.0234    1223119.74549    936569.81247                  23203205.5554
        46.0004         32.7504
  20797701.6334      82032.13449     62116.77348                  20797700.4964
        51.0004         45.0004
  23104411.4844   -1847979.50049  -1419995.56347                  23104412.6764
        46.0004         31.0004
  23319397.2344   -1270417.50449   -988859.15047                  23319398.3324
        44.2504         33.0004
 02  7 11 15 12 30.0000000  0  9G 6G10G15G17G18G30G23G26G29
  20302244.0554    -106057.42149    -82940.99248                  20302242.8524
        49.5004         43.5004
  22779915.1254    2079372.28849   1599910.23047                  22779916.2774
        44.0004         36.5004
  21703698.5634   -1540391.50049  -1187955.84248                  21703698.1724
        47.7504         41.5004
  21174165.1414   -1049580.95449   -811238.23348                  21174164.6174
        50.0004         43.5004
  22846143.9614   -2514422.39049  -1948315.56847                  22846143.9184
        47.2504         37.0004
  23213480.3984    1277122.77449    978650.02047                  23213481.7974
        45.5004         32.5004
  20799184.6254      89823.81749     68188.20848                  20799183.6724
        52.5004         45.0004
  23097862.2114   -1882394.29149  -1446812.22647                  23097863.6254
        45.0004         31.5004
  23314999.0084   -1293529.11549  -1006868.18047                  23315000.0784
        45.2504         33.7504
 02  7 11 15 12 45.0000000  0  9G 6G10G15G17G18G30G23G26G29
  20302871.8914    -102756.88549    -80369.15748                  20302870.6844
        49.0004         43.7504
  22789022.6954    2127231.24149   1637202.88547                  22789022.3914
        46.0004         36.0004
  21698459.6414   -1567921.68549  -1209407.93548                  21698459.1804
        47.5004         42.0004
  21170854.0634   -1066979.45749   -824795.51048                  21170853.4734
        48.7504         43.7504
  22837016.6254   -2562388.67449  -1985691.86747                  22837016.1644
        45.2504         37.0004
  23223776.9534    1331232.21849   1020813.13347                  23223778.6254
        45.7504         33.0004
  20800705.3674      97814.54849     74414.73948                  20800703.9964
        52.0004         44.5004
  23091343.3054   -1916649.53149  -1473504.56347                  23091345.2774
        44.7504         30.7504
  23310632.8054   -1316473.02449  -1024746.53247                  23310633.8284
        43.5004         34.0004
 02  7 11 15 13  0.0000000  0  9G 6G10G15G17G18G30G23G26G29
  20303533.8284     -99279.05049    -77659.17048                  20303533.3674
        49.5004         44.0004
  22798156.8594    2175233.04449   1674606.85347                  22798157.3204
        44.2504         35.5004
  21693245.5234   -1595323.31849  -1230759.85148                  21693244.9454
        48.0004         43.0004
  21167567.4224   -1084251.14749   -838253.97148                  21167566.8484
        49.5004         43.7504
  22827914.2114   -2610222.69249  -2022965.12047                  22827914.2624
        46.5004         37.7504
  23234093.7894    1385447.95949   1063059.08947                  23234095.8164
        44.5004         33.0004
  20802263.7424     106004.48749     80796.50048                  20802262.5434
        52.0004         45.0004
  23084855.6954   -1950744.47149  -1500072.01347                  23084857.0554
        45.2504         30.2504
  23306298.7814   -1339248.65449  -1042493.75247                  23306300.1844
        46.0004         33.5004
 02  7 11 15 13 15.0000000  0  9G 6G10G15G17G18G30G23G26G29
  20304229.1254     -95626.96949    -74813.41048                  20304228.1564
        50.5004         44.0004
  22807318.0704    2223374.27749   1712119.45647                  22807318.3164
        44.0004         35.2504
  21688055.3204   -1622599.49549  -1252014.02448                  21688054.4024
        48.5004         42.5004
  21164304.1414   -1101399.24749   -851616.13048                  21164302.9654
        51.5004         44.5004
  22818836.0004   -2657927.36449  -2060137.55747                  22818835.7344
        47.2504         36.2504
  23244430.0634    1439766.38149   1105385.04647                  23244432.1724
        43.7504         33.7504
  20803859.1804     114390.30649     87330.88948                  20803858.4924
        51.5004         45.0004
  23078397.4924   -1984681.85649  -1526516.68447                  23078398.6524
        46.0004         31.2504
  23301996.2974   -1361858.91249  -1060112.11547                  23301997.5664
        45.5004         33.2504
 02  7 11 15 13 30.0000000  0  9G 6G10G15G17G18G30G23G26G29
  20304956.9614     -91802.24249    -71833.11648                  20304955.7504
        51.0004         43.5004
  22816505.7194    2271652.64449   1749738.92647                  22816505.5514
        43.7504         36.0004
  21682887.6884   -1649751.91049  -1273171.73448                  21682887.3244
        47.7504         42.2504
  21161064.4384   -1118425.50749   -864883.34748                  21161063.6094
        50.0004         44.5004
  22809782.7734   -2705504.09149  -2097210.32247                  22809782.4384
        45.7504         37.0004
  23254786.3134    1494185.50249   1147789.46947                  23254787.6484
        45.0004         33.5004
  20805492.2894     122970.22949     94016.53148                  20805491.3914
        51.5004         45.0004
  23071968.9384   -2018463.19049  -1552839.78147                  23071970.7894
        45.0004         31.5004
  23297725.4384   -1384305.16849  -1077602.70047                  23297726.7114
        45.0004         33.2504
 02  7 11 15 13 45.0000000  0  9G 6G10G15G17G18G30G23G26G29
  20305716.7114     -87807.94649    -68720.69848                  20305715.6524
        50.5004         43.5004
  22825718.2894    2320064.55049   1787462.45147                  22825718.1094
        43.7504         36.0004
  21677744.0234   -1676783.77249  -1294235.51348                  21677743.5664
        47.7504         42.0004
  21157846.8754   -1135333.20649   -878058.17448                  21157846.2274
        50.5004         44.2504
  22800752.6804   -2752955.81949  -2134185.67547                  22800752.5434
        47.5004         37.5004
  23265160.2344    1548701.52349   1190269.39147                  23265161.5704
        44.2504         33.0004
  20807161.2664     131740.84149    100850.76248                  20807159.8714
        51.2504         44.5004
  23065569.8674   -2052091.05249  -1579043.27747                  23065572.0784
        45.5004         31.5004
  23293484.1884   -1406590.35349  -1094967.75947                  23293485.7114
        45.0004         32.7504
 02  7 11 15 14  0.0000000  0  9G 6G10G15G17G18G30G23G26G29
  20306508.4614     -83646.38349    -65477.93548                  20306507.6054
        50.7504         43.5004
  22834955.5234    2368607.31849   1825287.94147                  22834955.3164
        44.2504         35.5004
  21672622.6804   -1703697.52049  -1315207.25748                  21672621.6804
        48.0004         41.5004
  21154651.7344   -1152124.70549   -891142.46948                  21154650.6254
        50.2504         44.2504
  22791746.4384   -2800284.76049  -2171065.35847                  22791745.9804
        48.0004         36.7504
  23275552.7664    1603311.93149   1232822.88947                  23275554.1484
        44.5004         32.2504
  20808866.1484     140699.60349    107831.59748                  20808865.1294
        51.5004         45.0004
  23059199.2274   -2085567.53249  -1605128.82547                  23059201.2274
        45.0004         31.0004
  23289273.1334   -1428716.50749  -1112208.89547                  23289275.0944
        45.2504         33.5004
 02  7 11 15 14 15.0000000  0  9G 6G10G15G17G18G30G23G26G29
  20307332.8524     -79315.25449    -62103.03948                  20307331.9264
        48.5004         43.0004
  22844217.7894    2417282.69249   1863216.75947                  22844218.3954
        45.0004         36.0004
  21667523.7734   -1730490.99349  -1336085.28148                  21667523.4184
        47.5004         41.7504
  21151478.9614   -1168797.96349   -904134.61048                  21151477.5044
        49.0004         43.7504
  22782763.4224   -2847488.44249  -2207847.43147                  22782762.8054
        45.0004         36.7504
  23285963.1414    1658018.36149   1275451.19147                  23285964.9924
        44.0004         33.5004
  20810607.1884     149848.53549    114960.62348                  20810606.2664
        49.5004         44.5004
  23052858.3754   -2118890.07149  -1631094.38647                  23052860.4654
        44.5004         31.0004
  23285094.1954   -1450681.31649  -1129324.32747                  23285095.1174
        45.0004         32.5004
 02  7 11 15 14 30.0000000  0  9G 6G10G15G17G18G30G23G26G29
  20308188.9304     -74816.89349    -58597.83448                  20308187.6804
        50.5004         44.0004
  22853505.8984    2466087.90349   1901246.75847                  22853505.6524
        45.7504         36.5004
  21662447.4924   -1757166.64249  -1356871.48448                  21662447.0824
        49.2504         41.7504
  21148328.0164   -1185355.25949   -917036.39348                  21148326.6994
        50.2504         44.0004
  22773804.4774   -2894569.05449  -2244533.59947                  22773803.6134
        47.0004         37.0004
  23296391.0634    1712818.02549   1318152.13347                  23296392.6604
        43.7504         33.5004
  20812383.7194     159185.02149    122235.80048                  20812382.5554
        51.5004         44.5004
  23046545.9144   -2152060.75349  -1656941.64547                  23046547.8484
        44.7504         31.5004
  23280944.3674   -1472486.95449  -1146315.70947                  23280945.4924
        44.7504         33.2504
 02  7 11 15 14 45.0000000  0  9G 6G10G15G17G18G30G23G26G29
  20309076.9694     -70150.86049    -54961.98448                  20309076.2424
        50.0004         44.0004
  22862817.2034    2515023.04949   1939377.98847                  22862817.5434
        45.0004         36.7504
  21657393.7114   -1783724.04749  -1377565.56148                  21657393.3794
        48.7504         41.2504
  21145199.5004   -1201796.46749   -929847.73348                  21145198.0314
        50.7504         44.0004
  22764868.7584   -2941525.96149  -2281123.37547                  22764868.5084
        47.0004         36.7504
  23306837.2274    1767710.97149   1360925.77747                  23306838.5204
        44.2504         33.0004
  20814196.2344     168709.27149    129657.28048                  20814195.4384
        51.5004         44.7504
  23040263.5164   -2185078.66849  -1682669.86747                  23040265.1174
        44.5004         30.5004
  23276824.9384   -1494132.68549  -1163182.50747                  23276826.1994
        45.0004         33.0004
 02  7 11 15 15  0.0000000  0  9G 6G10G15G17G18G30G23G26G29
  20309995.6954     -65321.81049    -51199.09648                  20309994.9104
        52.0004         44.0004
  22872153.2424    2564083.08049   1977606.55547                  22872153.5744
        45.2504         36.7504
  21652361.6094   -1810167.95849  -1398171.19048                  21652360.8554
        48.5004         41.0004
  21142092.0164   -1218126.24249   -942572.22548                  21142090.8874
        49.7504         43.7504
  22755956.0634   -2988363.82749  -2317620.38347                  22755955.8444
        46.0004         36.7504
  23317299.3444    1822691.98749   1403768.05447                  23317300.9804
        44.5004         33.5004
  20816043.3284     178416.36849    137221.24348                  20816042.2814
        51.2504         45.0004
  23034007.8054   -2217948.28749  -1708282.53247                  23034009.6644
        44.2504         30.7504
  23272736.3204   -1515623.01249  -1179928.19247                  23272736.6524
        46.0004         33.5004
 02  7 11 15 15 15.0000000  0  9G 6G10G15G17G18G30G23G26G29
  20310946.3594     -60326.55549    -47306.71948                  20310945.5824
        51.7504         44.5004
  22881513.5234    2613270.66649   2015934.50447                  22881514.0004
        46.0004         36.0004
  21647351.6334   -1836495.29049  -1418685.99148                  21647350.7504
        48.5004         41.5004
  21139006.1884   -1234341.59449   -955207.56848                  21139005.2664
        50.0004         44.0004
  22747066.4774   -3035079.11149  -2354021.88847                  22747066.1994
        46.2504         36.7504
  23327779.4304    1877763.76549   1446681.04847                  23327780.9884
        45.2504         33.2504
  20817926.1804     188309.21049    144929.94948                  20817924.5514
        51.7504         44.5004
  23027781.5634   -2250666.13349  -1733776.93947                  23027783.9804
        44.0004         31.0004
  23268677.1484   -1536954.49149  -1196550.11847                  23268677.6134
        46.2504         33.0004
 02  7 11 15 15 30.0000000  0  9G 6G10G15G17G18G30G23G26G29
  20311928.3134     -55167.47749    -43286.67448                  20311927.4614
        50.7504         44.2504
  22890896.6174    2662582.92949   2054359.59747                  22890897.6884
        45.0004         36.0004
  21642363.5944   -1862708.63349  -1439111.97248                  21642362.7464
        49.0004         40.5004
  21135941.8444   -1250445.06549   -967755.72548                  21135941.2304
        49.2504         43.5004
  22738199.6414   -3081674.04449  -2390329.60747                  22738199.2504
        46.0004         36.5004
  23338276.2584    1932923.50549   1489662.56547                  23338277.0704
        44.2504         33.5004
  20819843.2114     198385.23349    152781.37148                  20819842.1604
        52.2504         44.7504
  23021584.9694   -2283234.20649  -1759154.63447                  23021585.9694
        44.7504         31.2504
  23264647.4844   -1558129.43849  -1213050.06847                  23264648.0164
        46.2504         33.5004
 02  7 11 15 15 45.0000000  0  9G 6G10G15G17G18G30G23G26G29
  20312941.0164     -49843.78549    -39138.34848                  20312940.9024
        51.7504         44.5004
  22900304.8524    2712020.09849   2092882.03147                  22900305.8324
        44.0004         36.0004
  21637397.1954   -1888807.11149  -1459448.43748                  21637396.5514
        49.0004         41.0004
  21132898.8984   -1266435.92849   -980216.13848                  21132897.7974
        50.2504         43.5004
  22729355.9304   -3128147.78649  -2426542.89047                  22729355.0944
        47.7504         36.7504
  23348789.5394    1988171.45749   1532712.83547                  23348790.6414
        44.0004         33.5004
  20821795.4844     208644.93749    160775.94248                  20821794.4414
        51.0004         44.7504
  23015415.8524   -2315651.53649  -1784414.83047                  23015417.1724
        44.7504         31.5004
  23260647.8754   -1579146.85049  -1229427.24147                  23260648.4304
        46.0004         34.0004
 02  7 11 15 16  0.0000000  0  9G 6G10G15G17G18G30G23G26G29
  20313984.8834     -44359.45849    -34864.88148                  20313984.0634
        51.2504         44.2504
  22909735.3984    2761577.79649   2131498.35347                  22909735.7384
        44.0004         36.0004
  21632451.7974   -1914794.88749  -1479698.65148                  21632451.1604
        48.7504         41.2504
  21129876.3444   -1282318.37249   -992592.08148                  21129875.4774
        49.5004         43.2504
  22720534.4224   -3174504.12949  -2462664.70447                  22720533.5434
        46.7504         37.0004
  23359319.1174    2043503.25149   1575828.42347                  23359319.6884
        44.0004         33.2504
  20823782.2664     219084.15249    168910.37848                  20823781.1484
        51.0004         45.2504
  23009275.4064   -2347921.69049  -1809560.39347                  23009276.2304
        45.0004         32.7504
  23256677.5554   -1600010.42549  -1245684.56547                  23256678.3404
        46.5004         34.0004
 02  7 11 15 16 15.0000000  0  9G 6G10G15G17G18G30G23G26G29
  20315058.7344     -38715.96549    -30467.36548                  20315057.5234
        51.5004         44.0004
  22919188.5394    2811254.16549   2170207.16747                  22919189.2234
        44.2504         35.2504
  21627527.5084   -1940673.59449  -1499863.87148                  21627526.9494
        49.5004         41.0004
  21126874.2274   -1298093.91849  -1004884.72648                  21126873.3914
        50.7504         43.7504
  22711735.3984   -3220744.46949  -2498696.11447                  22711734.9104
        47.2504         37.5004
  23369864.3284    2098916.75749   1619007.68747                  23369864.6254
        44.7504         34.0004
  20825802.2114     229701.11049    177183.32348                  20825801.5204
        51.2504         45.2504
  23003162.6954   -2380045.99949  -1834592.30047                  23003163.0704
        45.5004         32.0004
  23252735.9924   -1620721.65549  -1261823.17747                  23252737.2664
        46.0004         33.7504
 02  7 11 15 16 30.0000000  0  9G 6G10G15G17G18G30G23G26G29
  20316162.8054     -32914.42149    -25946.69448                  20316161.9414
        52.2504         44.0004
  22928664.1804    2861047.63349   2209007.24247                  22928664.5704
        44.2504         36.0004
  21622623.1174   -1966444.39049  -1519945.00348                  21622622.6644
        49.0004         41.2504
  21123892.2274   -1313763.86449  -1017095.07148                  21123891.7774
        49.0004         43.5004
  22702958.2114   -3266869.69349  -2534637.84647                  22702957.7154
        45.7504         37.0004
  23380423.7584    2154410.60949   1662249.56547                  23380425.2114
        43.5004         34.7504
  20827856.5314     240494.46949    185593.71948                  20827855.3524
        51.5004         44.7504
  22997077.2274   -2412025.13449  -1859511.07847                  22997077.7664
        43.7504         32.0004
  23248823.8134   -1641281.34249  -1277843.69647                  23248825.0314
        46.0004         34.2504
 02  7 11 15 16 45.0000000  0  9G 6G10G15G17G18G30G23G26G29
  20317297.4774     -26951.96349    -21300.63348                  20317296.3914
        51.5004         44.0004
  22938162.0944    2910960.53849   2247900.36747                  22938163.1954
        44.7504         35.5004
  21617740.3984   -1992104.49549  -1539939.88248                  21617739.9614
        49.7504         41.5004
  21120931.4454   -1329325.37949  -1029220.94148                  21120930.6254
        49.7504         44.0004
  22694203.1954   -3312876.80449  -2570487.51547                  22694202.3484
        46.2504         36.7504
  23390999.8284    2209987.10249   1705555.82447                  23391001.4804
        44.7504         34.2504
  20829944.3594     251466.84649    194143.61448                  20829943.5274
        51.5004         45.0004
  22991019.6644   -2443855.93549  -1884314.27447                  22991020.9064
        44.5004         32.0004
  23244941.5004   -1661686.38249  -1293743.70347                  23244942.3244
        46.5004         35.0004
 02  7 11 15 17  0.0000000  0  9G 6G10G15G17G18G30G23G26G29
  20318462.3524     -20830.63949    -16530.78148                  20318461.2384
        51.7504         44.5004
  22947682.0234    2960990.28349   2286884.53847                  22947683.5784
        44.0004         36.0004
  21612878.1414   -2017656.06449  -1559850.19248                  21612877.4774
        48.0004         41.7504
  21117990.5634   -1344780.81049  -1041264.15648                  21117989.7544
        49.2504         43.5004
  22685470.6884   -3358767.71349  -2606246.65347                  22685469.5984
        46.0004         37.5004
  23401591.1414    2265643.69949   1748924.51447                  23401592.3014
        44.0004         34.2504
  20832066.2504     262615.92949    202831.20148                  20832065.2854
        51.0004         45.2504
  22984990.3444   -2475540.21949  -1909003.30547                  22984991.5474
        43.7504         31.2504
  23241087.3524   -1681938.67649  -1309524.69447                  23241088.1414
        46.2504         34.7504
 02  7 11 15 17 15.0000000  0  9G 6G10G15G17G18G30G23G26G29
  20319658.0474     -14547.99049    -11635.22648                  20319657.1374
        51.0004         44.5004
  22957225.2664    3011138.98049   2325961.40747                  22957226.3834
        45.2504         35.7504
  21608037.0164   -2043096.65949  -1579674.01348                  21608036.1294
        49.0004         41.5004
  21115070.1024   -1360127.65049  -1053222.73848                  21115068.9774
        50.0004         44.0004
  22676760.1254   -3404539.69149  -2641913.10547                  22676759.4104
        47.2504         37.5004
  23412197.8444    2321382.46349   1792357.22247                  23412199.6954
        43.5004         34.0004
  20834221.5784     273943.94949    211658.22548                  20834220.4804
        51.5004         45.0004
  22978989.1334   -2507075.17449  -1933575.96647                  22978990.1094
        43.7504         31.7504
  23237262.9304   -1702035.62449  -1325184.64147                  23237263.9844
        46.5004         34.7504
 02  7 11 15 17 30.0000000  0  9G 6G10G15G17G18G30G23G26G29
  20320883.4694      -8106.56649     -6615.94648                  20320882.8754
        51.7504         44.7504
  22966790.5554    3061403.69749   2365128.66647                  22966791.7704
        45.7504         35.7504
  21603215.9064   -2068428.93149  -1599413.44648                  21603215.6254
        49.5004         41.0004
  21112169.4774   -1375368.61949  -1065098.82248                  21112168.6524
        49.2504         43.7504
  22668072.2894   -3450195.21449  -2677488.81547                  22668071.2894
        47.0004         37.5004
  23422819.7894    2377200.40449   1835851.63747                  23422821.7384
        44.5004         34.2504
  20836411.0944     285448.07949    220622.46448                  20836409.5234
        51.2504         44.7504
  22973016.3984   -2538463.00849  -1958033.99447                  22973017.5514
        43.0004         31.7504
  23233468.1564   -1721979.54749  -1340725.35547                  23233468.2974
        45.7504         34.0004
 02  7 11 15 17 45.0000000  0  9G 6G10G15G17G18G30G23G26G29
  20322139.6644      -1507.57349     -1473.89548                  20322138.9144
        51.7504         44.7504
  22976377.2734    3111782.65549   2404384.95647                  22976377.9064
        45.0004         35.7504
  21598415.7894   -2093654.24849  -1619069.54448                  21598415.1214
        48.7504         40.7504
  21109288.9844   -1390505.05349  -1076893.45848                  21109288.4304
        48.7504         43.5004
  22659406.5474   -3495735.39249  -2712974.64547                  22659405.4574
        47.5004         37.0004
  23433456.0554    2433095.66849   1879406.30647                  23433458.2814
        43.7504         34.0004
  20838633.3364     297126.80649    229722.76248                  20838631.9654
        51.0004         45.0004
  22967071.4924   -2569704.82349  -1982378.24647                  22967072.5634
        43.2504         32.0004
  23229701.5164   -1741771.55649  -1356147.68347                  23229701.5704
        45.5004         33.2504
 02  7 11 15 18  0.0000000  0  9G 6G10G15G17G18G30G23G26G29
  20323424.4774       5245.43049      3788.16748                  20323423.8204
        51.5004         44.2504
  22985985.0554    3162271.78449   2443727.09547                  22985985.6214
        46.0004         35.5004
  21593635.0314   -2118776.24849  -1638645.12648                  21593634.6684
        49.0004         41.0004
  21106428.1564   -1405540.69849  -1088609.54448                  21106427.4344
        49.0004         44.0004
  22650761.4064   -3541163.46249  -2748373.12547                  22650760.6334
        46.2504         38.0004
  23444106.9844    2489064.41349   1923018.23147                  23444108.5274
        43.2504         33.0004
  20840888.2664     308976.35649    238956.17248                  20840887.3714
        51.2504         45.0004
  22961152.9384   -2600803.58349  -2006611.00047                  22961154.7934
        43.5004         32.7504
  23225963.6174   -1761414.98049  -1371454.24847                  23225963.1564
        45.5004         33.5004
 02  7 11 15 18 15.0000000  0  9G 6G10G15G17G18G30G23G26G29
  20324739.2664      12154.57749      9171.90748                  20324738.1914
        52.0004         44.5004
  22995614.0704    3212872.92649   2483156.50347                  22995614.6484
        45.7504         36.0004
  21588874.4924   -2143792.83449  -1658138.56848                  21588874.7074
        48.7504         41.7504
  21103586.5314   -1420473.42649  -1100245.43648                  21103586.1054
        48.7504         44.0004
  22642138.5944   -3586477.25949  -2783682.56347                  22642137.3594
        46.2504         37.2504
  23454771.8134    2545108.18949   1966688.60447                  23454773.3834
        43.0004         34.0004
  20843175.8284     320998.59049    248324.13848                  20843174.9694
        51.2504         45.0004
  22955262.7814   -2631757.06349  -2030730.57047                  22955264.4734
        43.0004         32.7504
  23222253.8524   -1780907.55949  -1386643.26947                  23222253.9964
        45.0004         33.5004
 02  7 11 15 18 30.0000000  0  9G 6G10G15G17G18G30G23G26G29
  20326084.3594      19223.08249     14679.81648                  20326082.9304
        52.5004         44.2504
  23005264.7734    3263588.82849   2522675.34647                  23005265.7034
        45.5004         35.2504
  21584134.9144   -2168700.84649  -1677547.41448                  21584135.1024
        48.5004         41.5004
  21100765.0864   -1435300.22949  -1111798.79348                  21100765.0394
        48.7504         43.5004
  22633538.2664   -3631673.43849  -2818900.35047                  22633537.5784
        47.2504         38.0004
  23465451.4844    2601229.74249   2010419.60647                  23465453.3594
        44.2504         34.0004
  20845497.2344     333196.45549    257828.95048                  20845496.2894
        52.5004         45.7504
  22949401.1254   -2662561.70449  -2054734.15847                  22949402.1644
        43.2504         33.0004
  23218573.5394   -1800245.74649  -1401711.97947                  23218574.4024
        45.0004         33.2504
 02  7 11 15 18 45.0000000  0  9G 6G10G15G17G18G30G23G26G29
  20327459.0784      26445.78649     20307.89148                  20327457.4774
        52.5004         44.2504
  23014937.2664    3314413.93349   2562279.28747                  23014938.0314
        45.2504         34.0004
  21579414.6564   -2193505.58149  -1696875.78148                  21579414.9924
        48.2504         41.7504
  21097962.7504   -1450026.39849  -1123273.72848                  21097962.1294
        48.7504         43.5004
  22624958.8054   -3676756.98549  -2854030.37147                  22624958.3524
        47.0004         37.5004
  23476144.5704    2657423.51549   2054206.88047                  23476145.9304
        44.0004         34.0004
  20847850.5314     345564.55549    267466.43048                  20847849.6334
        51.7504         45.2504
  22943566.6484   -2693222.36849  -2078625.56747                  22943567.5274
        44.5004         33.0004
  23214922.4224   -1819434.65349  -1416664.36547                  23214923.3164
        45.5004         34.5004
 02  7 11 15 19  0.0000000  0  9G 6G10G15G17G18G30G23G26G29
  20328862.7114      33821.83149     26055.44748                  20328861.4184
        52.2504         44.7504
  23024628.8054    3365346.86549   2601967.25647                  23024629.6884
        45.5004         35.0004
  21574713.9534   -2218207.97549  -1716124.38648                  21574713.8794
        48.7504         42.2504
  21095179.1484   -1464652.74149  -1134670.88148                  21095178.6524
        48.7504         44.0004
  22616401.0084   -3721728.64249  -2889073.19847                  22616400.1454
        46.5004         37.7504
  23486851.7734    2713688.20449   2098049.38547                  23486853.3954
        45.5004         34.5004
  20850236.6884     358101.75349    277235.66648                  20850235.2274
        52.0004         45.0004
  22937759.7974   -2723739.50149  -2102405.13047                  22937760.4614
        44.2504         32.2504
  23211298.4144   -1838474.97149  -1431500.96147                  23211299.7974
        45.7504         34.5004
 02  7 11 15 19 15.0000000  0  9G 6G10G15G17G18G30G23G26G29
  20330295.9064      41354.10949     31924.75148                  20330294.6954
        51.5004         44.2504
  23034342.1564    3416390.03749   2641741.11947                  23034343.3794
        44.7504         35.2504
  21570033.3054   -2242805.24349  -1735291.08748                  21570033.3134
        48.5004         42.0004
  21092415.6094   -1479176.69149  -1145988.24448                  21092415.2194
        49.5004         43.2504
  22607865.1484   -3766585.35749  -2924026.46647                  22607864.2544
        47.0004         37.0004
  23497572.2114    2770026.16249   2141948.99847                  23497574.3014
        46.0004         34.5004
  20852654.7814     370810.70249    287138.72448                  20852653.9064
        51.2504         44.7504
  22931979.4384   -2754110.10449  -2126070.51247                  22931980.8984
        43.5004         32.2504
  23207704.5634   -1857363.53249  -1446219.32247                  23207705.5554
        46.0004         34.0004
 02  7 11 15 19 30.0000000  0  9G 6G10G15G17G18G30G23G26G29
  20331759.4614      49045.63549     37918.14248                  20331758.4774
        51.5004         44.2504
  23044076.8594    3467546.09149   2681602.91847                  23044077.5634
        44.5004         35.2504
  21565372.8834   -2267294.52049  -1754373.64248                  21565372.9734
        49.2504         42.0004
  21089671.6884   -1493595.30049  -1157223.53048                  21089671.1724
        48.5004         43.5004
  22599351.6254   -3811323.87949  -2958887.64547                  22599350.6954
        47.0004         37.2504
  23508307.4534    2826439.95449   2185907.70347                  23508309.7584
        45.7504         33.2504
  20855106.3754     383694.12849    297177.76048                  20855105.4734
        51.2504         44.5004
  22926229.2814   -2784330.75149  -2149619.06547                  22926230.3204
        43.7504         33.0004
  23204139.8054   -1876097.18249  -1460816.97447                  23204141.0004
        46.0004         34.5004
 02  7 11 15 19 45.0000000  0  9G 6G10G15G17G18G30G23G26G29
  20333252.6564      56893.82149     44033.59448                  20333252.0394
        51.7504         44.0004
  23053832.8834    3518811.95749   2721550.31447                  23053833.3554
        46.0004         35.0004
  21560733.2034   -2291678.36549  -1773374.04048                  21560732.8874
        50.0004         42.0004
  21086947.7424   -1507911.20649  -1168378.79048                  21086946.9964
        48.7504         43.2504
  22590860.4924   -3855946.68549  -2993658.64547                  22590859.3794
        47.5004         38.0004
  23519056.8444    2882926.62249   2229923.17547                  23519058.5354
        46.5004         34.2504
  20857590.8984     396749.23149    307350.54948                  20857589.5784
        51.7504         44.7504
  22920505.9614   -2814403.71949  -2173052.52047                  22920507.5554
        44.5004         32.5004
  23200604.0704   -1894678.31749  -1475295.76647                  23200604.5354
        46.0004         34.5004
 02  7 11 15 20  0.0000000  0  9G 6G10G15G17G18G30G23G26G29
  20334775.4304      64894.09249     50267.53748                  20334774.0594
        51.2504         44.7504
  23063608.6564    3570182.60449   2761579.35547                  23063608.7504
        47.0004         35.0004
  21556112.4064   -2315961.47849  -1792295.94648                  21556111.9454
        49.5004         42.0004
  21084242.0474   -1522129.14549  -1179457.70448                  21084241.2544
        48.7504         43.5004
  22582390.0394   -3900458.09449  -3028342.84147                  22582389.4964
        47.7504         38.0004
  23529818.7504    2939480.98049   2273991.43847                  23529820.4344
        46.5004         33.5004
  20860106.7894     409971.18349    317653.36148                  20860105.9654
        51.7504         45.0004
  22914811.1174   -2844333.29049  -2196374.23047                  22914812.1294
        42.0004         33.0004
  23197096.3204   -1913111.37649  -1489659.18347                  23197097.2814
        46.0004         34.2504
 02  7 11 15 20 15.0000000  0  9G 6G10G15G17G18G30G23G26G29
  20336327.1024      73049.84849     56622.64448                  20336326.0314
        51.7504         44.2504
  23073403.5634    3621660.97849   2801692.34747                  23073404.4454
        45.5004         35.2504
  21551511.0704   -2340140.54649  -1811136.76648                  21551510.8204
        49.7504         42.7504
  21081555.7584   -1536245.84949  -1190457.73948                  21081554.8874
        49.7504         44.0004
  22573941.5864   -3944854.67249  -3062937.56847                  22573941.6054
        47.0004         38.5004
  23540594.1804    2996106.10949   2318114.79847                  23540595.8594
        46.2504         33.7504
  20862655.5004     423363.12949    328088.63348                  20862654.6724
        51.7504         45.2504
  22909143.3674   -2874115.80749  -2219581.39147                  22909145.0084
        42.5004         32.0004
  23193617.4304   -1931392.74449  -1503904.42047                  23193618.1684
        46.0004         33.5004
 02  7 11 15 20 30.0000000  0  9G 6G10G15G17G18G30G23G26G29
  20337909.6804      81364.99849     63101.96448                  20337908.5744
        51.7504         44.0004
  23083221.1334    3673250.65549   2841892.04947                  23083221.8554
        45.0004         34.5004
  21546931.1094   -2364211.74849  -1829893.54748                  21546930.6024
        50.2504         42.7504
  21078889.2664   -1550257.53349  -1201375.94048                  21078888.6604
        49.2504         44.0004
  22565515.6954   -3989132.41449  -3097439.69447                  22565515.1334
        46.7504         38.2504
  23551383.7424    3052805.38249   2362295.97247                  23551385.8054
        46.5004         34.2504
  20865236.7344     436928.71349    338659.21248                  20865236.5044
        51.5004         45.0004
  22903504.7814   -2903747.09949  -2242670.67347                  22903506.3674
        42.5004         31.2504
  23190168.1724   -1949518.34949  -1518028.24747                  23190169.2974
        44.7504         33.0004
 02  7 11 15 20 45.0000000  0  9G 6G10G15G17G18G30G23G26G29
  20339522.1024      89836.03149     69702.74448                  20339520.6484
        51.7504         44.5004
  23093059.2274    3724947.61149   2882175.34147                  23093059.6094
        46.0004         34.5004
  21542369.6094   -2388178.70849  -1848569.08348                  21542369.6294
        49.7504         42.5004
  21076242.5004   -1564167.79449  -1212215.12448                  21076241.9804
        49.0004         44.0004
  22557111.7734   -4033294.47649  -3131851.67647                  22557111.3554
        47.0004         38.7504
  23562186.7344    3109574.85349   2406531.82147                  23562189.1214
        46.0004         33.7504
  20867850.5314     450664.14949    349362.12748                  20867850.0274
        50.7504         45.0004
  22897893.5864   -2933230.25149  -2265644.55547                  22897895.5514
        42.0004         33.0004
  23186747.6484   -1967491.51449  -1532033.31747                  23186748.2974
        45.7504         32.5004
 02  7 11 15 21  0.0000000  0  9G 6G10G15G17G18G30G23G26G29
  20341162.7194      98460.00149     76422.72848                  20341161.1994
        52.2504         44.2504
  23102916.3054    3776748.44649   2922539.59347                  23102917.3164
        46.5004         35.2504
  21537828.0084   -2412044.40749  -1867165.72248                  21537827.9734
        50.5004         42.7504
  21073613.9384   -1577979.69049  -1222977.63648                  21073613.0704
        50.0004         43.7504
  22548729.8134   -4077343.75549  -3166175.77747                  22548729.3874
        47.0004         38.7504
  23573002.3134    3166411.10449   2450819.70347                  23573004.6254
        46.0004         33.7504
  20870495.8134     464566.27049    360194.94348                  20870495.4574
        51.2504         45.0004
  22892310.7274   -2962567.91449  -2288505.04547                  22892312.6214
        43.0004         32.2504
  23183356.0394   -1985314.98749  -1545921.71847                  23183356.8484
        45.0004         33.2504
 02  7 11 15 21 15.0000000  0  9G 6G10G15G17G18G30G23G26G29
  20342833.1254     107237.17849     83262.06348                  20342832.0554
        52.0004         43.5004
  23112793.5394    3828652.99949   2962984.63947                  23112795.0354
        46.5004         35.5004
  21533305.9144   -2435808.62349  -1885683.28948                  21533305.8754
        50.0004         42.2504
  21071004.7194   -1591693.06749  -1233663.40548                  21071004.0314
        49.7504         43.5004
  22540369.0704   -4121279.81249  -3200411.64047                  22540368.5704
        47.7504         38.5004
  23583830.8054    3223313.95449   2495159.48447                  23583832.9654
        46.0004         33.5004
  20873173.2664     478635.11849    371157.67148                  20873172.5354
        51.5004         45.0004
  22886756.4064   -2991759.57249  -2311251.77047                  22886758.0394
        42.2504         31.2504
  23179992.4844   -2002988.31449  -1559693.14947                  23179993.5594
        45.5004         33.5004
 02  7 11 15 21 30.0000000  0  9G 6G10G15G17G18G30G23G26G29
  20344532.7664     116168.98149     90221.90048                  20344531.7274
        51.5004         44.0004
  23122690.8284    3880662.20749   3003511.26147                  23122692.0004
        46.2504         35.5004
  21528803.3204   -2459470.11349  -1904120.81648                  21528802.8594
        49.5004         41.7504
  21068413.8984   -1605306.67349  -1244271.40548                  21068413.2814
        48.2504         44.0004
  22532030.1094   -4165101.06749  -3234558.06647                  22532029.4144
        46.5004         37.7504
  23594672.0004    3280284.34349   2539551.90147                  23594674.0084
        45.7504         34.0004
  20875882.6024     492871.74749    382251.13648                  20875881.8284
        51.7504         44.7504
  22881229.9614   -3020803.55349  -2333883.43647                  22881231.3364
        42.0004         32.2504
  23176658.8054   -2020509.95149  -1573346.35747                  23176659.5514
        45.7504         33.5004
 02  7 11 15 21 45.0000000  0  9G 6G10G15G17G18G30G23G26G29
  20346261.1724     125251.96249     97299.52348                  20346260.0864
        51.5004         44.5004
  23132606.8204    3932772.16649   3044116.37547                  23132608.2894
        46.5004         34.7504
  21524319.7194   -2483032.31449  -1922480.96748                  21524318.9414
        48.7504         41.0004
  21065841.7894   -1618823.93749  -1254804.34848                  21065841.0044
        49.2504         44.0004
  22523712.4534   -4208810.91949  -3268617.68247                  22523712.0124
        46.2504         38.0004
  23605525.1564    3337318.40849   2583993.93547                  23605527.3404
        44.5004         33.2504
  20878622.7894     507272.49149    393472.48148                  20878621.9694
        51.7504         45.2504
  22875729.8754   -3049702.90849  -2356402.40847                  22875731.9534
        43.0004         32.5004
  23173352.8204   -2037883.11049  -1586883.87947                  23173354.0634
        45.2504         34.5004
 02  7 11 15 22  0.0000000  0  9G 6G10G15G17G18G30G23G26G29
  20348019.5784     134492.05649    104499.56448                  20348019.0634
        51.5004         44.0004
  23142543.5004    3984988.47949   3084804.36847                  23142544.2344
        46.5004         35.7504
  21519855.6954   -2506489.47149  -1940759.26748                  21519854.9884
        49.5004         41.5004
  21063289.0084   -1632239.07549  -1265257.69648                  21063288.1094
        49.7504         44.0004
  22515416.6414   -4252403.16649  -3302585.64447                  22515416.8094
        47.7504         38.5004
  23616391.8134    3394421.63549   2628489.85647                  23616394.1914
        45.0004         33.5004
  20881395.8134     521842.99749    404826.11448                  20881394.4614
        51.5004         45.2504
  22870259.6094   -3078451.53449  -2378803.91847                  22870260.7194
        43.2504         32.0004
  23170076.2274   -2055101.81449  -1600301.06347                  23170077.3754
        45.0004         34.7504
 02  7 11 15 22 15.0000000  0  9G 6G10G15G17G18G30G23G26G29
  20349806.8524     143885.00549    111818.73548                  20349806.3754
        51.7504         44.5004
  23152498.8984    4037306.48549   3125571.61147                  23152500.9804
        45.5004         36.0004
  21515411.2814   -2529845.89949  -1958959.08148                  21515411.0314
        49.0004         41.5004
  21060754.7424   -1645556.51249  -1275634.92248                  21060753.5784
        50.0004         44.0004
  22507143.2894   -4295881.94349  -3336465.18547                  22507142.6954
        48.0004         38.2504
  23627270.5704    3451589.24749   2673035.95947                  23627272.2934
        44.5004         32.5004
  20884199.7274     536578.74149    416308.49948                  20884199.2034
        51.2504         45.2504
  22864816.8524   -3107053.20649  -2401090.91347                  22864818.0744
        43.2504         33.0004
  23166828.8834   -2072170.02249  -1613600.95547                  23166829.5824
        46.2504         35.0004
 02  7 11 15 22 30.0000000  0  9G 6G10G15G17G18G30G23G26G29
  20351623.4694     153430.77949    119256.97248                  20351622.4534
        51.5004         44.5004
  23162473.8754    4089725.71749   3166417.71747                  23162475.0124
        45.0004         35.2504
  21510985.9924   -2553101.68549  -1977080.48448                  21510985.7774
        50.0004         42.2504
  21058238.6884   -1658776.43149  -1285936.15948                  21058238.1294
        50.0004         44.2504
  22498891.1174   -4339247.02649  -3370256.15247                  22498890.6454
        47.7504         38.0004
  23638161.3134    3508820.77249   2717631.83947                  23638163.1524
        44.5004         33.0004
  20887035.1414     551479.46849    427919.43748                  20887034.3014
        51.7504         45.0004
  22859402.2894   -3135507.80449  -2423263.31747                  22859403.6294
        44.0004         33.0004
  23163609.1804   -2089087.72049  -1626783.58147                  23163610.2504
        45.5004         35.0004
 02  7 11 15 22 45.0000000  0  9G 6G10G15G17G18G30G23G26G29
  20353469.1564     163129.88649    126814.70648                  20353468.6564
        52.0004         44.5004
  23172468.6644    4142246.13149   3207342.66447                  23172469.5004
        45.7504         35.5004
  21506580.0004   -2576256.38749  -1995123.11048                  21506579.7074
        49.5004         42.5004
  21055741.8984   -1671898.44449  -1296161.10448                  21055741.1724
        49.7504         43.7504
  22490660.8364   -4382497.80149  -3403958.03647                  22490660.4534
        47.0004         38.5004
  23649064.4694    3566116.34749   2762277.64947                  23649066.4494
        44.5004         32.5004
  20889902.3914     566545.41049    439659.12148                  20889901.1684
        52.0004         45.0004
  22854015.3444   -3163814.42949  -2445320.42447                  22854017.0234
        44.7504         33.0004
  23160418.1804   -2105853.95049  -1639848.17347                  23160419.4964
        45.2504         34.5004
 02  7 11 15 23  0.0000000  0  9G 6G10G15G17G18G30G23G26G29
  20355343.5634     172981.15549    134491.00548                  20355342.8794
        51.5004         44.5004
  23182481.6174    4194866.14649   3248345.24247                  23182482.5704
        47.0004         36.0004
  21502192.5864   -2599311.25449  -2013087.93348                  21502192.2774
        50.0004         42.0004
  21053263.1564   -1684923.61249  -1306310.58748                  21053262.2974
        49.2504         44.0004
  22482451.6484   -4425635.31649  -3437571.67447                  22482451.7194
        47.0004         38.7504
  23659979.1724    3623474.26849   2806972.01847                  23659982.0204
        43.5004         32.5004
  20892800.0394     581775.19049    451526.47848                  20892799.2424
        51.0004         45.0004
  22848656.5394   -3191974.05849  -2467262.96347                  22848658.5234
        43.7504         33.5004
  23157257.1484   -2122469.91049  -1652795.66847                  23157257.7304
        45.5004         34.2504
 02  7 11 15 23 15.0000000  0  9G 6G10G15G17G18G30G23G26G29
  20357247.6254     182985.72749    142286.75948                  20357246.6334
        51.5004         43.5004
  23192514.5704    4247586.58849   3289426.05947                  23192515.6454
        45.5004         36.5004
  21497824.4614   -2622265.25649  -2030974.15548                  21497824.4494
        49.0004         42.0004
  21050803.1024   -1697851.09249  -1316383.95248                  21050802.6884
        49.7504         44.0004
  22474265.1254   -4468658.27849  -3471096.03547                  22474264.5944
        48.2504         38.5004
  23670905.5944    3680895.19549   2851715.48547                  23670908.4804
        44.7504         32.0004
  20895729.8754     597169.64349    463522.13648                  20895729.1454
        52.2504         45.2504
  22843326.4774   -3219985.19549  -2489089.80647                  22843328.0904
        45.0004         33.0004
  23154123.5314   -2138934.23549  -1665625.03047                  23154123.7424
        46.5004         34.7504
 02  7 11 15 23 30.0000000  0  9G 6G10G15G17G18G30G23G26G29
  20359180.3754     193142.95949    150201.48748                  20359179.4024
        51.7504         43.0004
  23202565.8834    4300406.30749   3330584.24847                  23202566.4024
        46.7504         36.0004
  21493475.8204   -2645119.11149  -2048782.36548                  21493474.9264
        49.5004         42.2504
  21048361.9384   -1710681.53749  -1326381.70348                  21048361.0784
        49.5004         43.7504
  22466099.5944   -4511567.07549  -3504531.44047                  22466099.3204
        47.5004         38.2504
  23681845.2974    3738378.24849   2896507.36947                  23681847.1254
        45.2504         31.5004
  20898690.6254     612727.95649    475645.49248                  20898689.2384
        51.2504         45.5004
  22838024.5554   -3247848.22649  -2510801.25347                  22838025.9104
        45.2504         33.2504
  23151019.2814   -2155247.43349  -1678336.61047                  23151019.4064
        46.5004         34.5004
 02  7 11 15 23 45.0000000  0  9G 6G10G15G17G18G30G23G26G29
  20361142.1174     203450.41449    158233.25548                  20361141.0394
        51.2504         43.5004
  23212635.6414    4353322.38549   3371817.49547                  23212636.4924
        45.2504         35.7504
  21489145.2584   -2667875.29149  -2066514.45748                  21489144.4454
        49.0004         42.0004
  21045937.9454   -1723417.58049  -1336305.89348                  21045937.1684
        49.5004         43.5004
  22457955.9694   -4554364.02149  -3537879.69847                  22457955.0164
        47.2504         38.0004
  23692794.8524    3795920.29449   2941345.20747                  23692797.3364
        44.5004         31.5004
  20901681.5474     628447.37249    487894.36648                  20901680.6134
        51.2504         45.5004
  22832749.9694   -3275565.06849  -2532398.76847                  22832751.3524
        44.5004         33.5004
  23147943.6254   -2171411.70949  -1690932.15547                  23147943.6374
        47.0004         35.0004
 02  7 11 15 24  0.0000000  0  9G 6G10G15G17G18G30G23G26G29
  20363132.8444     213913.27349    166386.12248                  20363131.6954
        51.5004         43.7504
  23222724.5004    4406339.60549   3413129.55947                  23222724.8484
        46.5004         36.0004
  21484834.3444   -2690528.66749  -2084166.44548                  21484833.7194
        49.7504         42.0004
  21043533.4304   -1736053.96849  -1346152.44048                  21043532.7664
        50.2504         43.7504
  22449833.4614   -4597043.82249  -3571136.68947                  22449833.3324
        48.0004         38.0004
  23703756.6414    3853526.28149   2986232.86447                  23703759.1994
        45.0004         31.2504
  20904704.4774     644332.78749    500272.60148                  20904703.4454
        52.0004         44.7504
  22827504.5234   -3303130.42049  -2553878.25547                  22827505.4774
        45.0004         33.5004
  23144896.8444   -2187421.65449  -1703407.43747                  23144897.4224
        47.0004         35.2504
 02  7 11 15 24 15.0000000  0  9G 6G10G15G17G18G30G23G26G29
  20365152.0474     224524.70349    174654.77248                  20365151.5164
        51.5004         43.7504
  23232831.1804    4459450.70549   3454514.79747                  23232832.0904
        46.2504         36.0004
  21480541.9844   -2713086.09949  -2101743.65648                  21480541.5704
        49.5004         42.2504
  21041146.7424   -1748597.75149  -1355926.82148                  21041145.4924
        50.2504         44.0004
  22441732.9304   -4639613.04349  -3604307.48847                  22441732.2854
        47.0004         38.2504
  23714729.8364    3911188.78149   3031164.58447                  23714731.8954
        44.2504         31.5004
  20907757.7504     660377.15149    512774.69548                  20907756.6604
        51.7504         45.2504
  22822287.0004   -3330550.69349  -2575244.68247                  22822287.6414
        45.2504         33.7504
  23141878.1254   -2203284.02349  -1715767.71447                  23141879.1884
        47.5004         35.0004
 02  7 11 15 24 30.0000000  0  9G 6G10G15G17G18G30G23G26G29
  20367200.5784     235287.71949    183041.54148                  20367199.3794
        51.5004         43.5004
  23242956.1884    4512658.28249   3495975.21747                  23242956.8914
        46.5004         36.0004
  21476268.3364   -2735544.78649  -2119243.92048                  21476268.2274
        50.0004         42.2504
  21038777.6804   -1761046.13049  -1365626.85248                  21038776.8134
        49.5004         43.7504
  22433653.8914   -4682068.66349  -3637389.76247                  22433653.4734
        47.2504         38.5004
  23725713.4614    3968910.45849   3076142.40147                  23725716.0004
        45.0004         31.2504
  20910841.5554     676583.13149    525402.72148                  20910840.7074
        51.2504         45.0004
  22817096.5394   -3357822.73349  -2596495.58747                  22817097.5824
        45.5004         34.0004
  23138888.4534   -2218995.59749  -1728010.49647                  23138889.1884
        46.5004         35.2504
 02  7 11 15 24 45.0000000  0  9G 6G10G15G17G18G30G23G26G29
  20369277.4384     246201.51749    191545.78448                  20369276.5594
        51.7504         44.0004
  23253099.4844    4565961.11149   3537509.82547                  23253100.5164
        46.7504         35.0004
  21472013.1254   -2757905.60949  -2136667.94548                  21472013.0904
        49.5004         42.5004
  21036427.0394   -1773399.87449  -1375253.15848                  21036426.1054
        49.7504         43.7504
  22425596.2114   -4724411.28849  -3670384.02147                  22425596.2424
        46.7504         38.7504
  23736709.0164    4026690.04749   3121165.33347                  23736711.4734
        44.5004         32.0004
  20913956.0314     692949.63749    538155.82448                  20913955.1914
        51.5004         45.0004
  22811935.7274   -3384947.03249  -2617631.40947                  22811936.1414
        45.2504         33.0004
  23135927.3524   -2234556.99049  -1740136.26347                  23135928.1294
        47.0004         34.7504
 02  7 11 15 25  0.0000000  0  9G 6G10G15G17G18G30G23G26G29
  20371383.8134     257270.42749    200170.90548                  20371382.9884
        51.5004         44.0004
  23263261.7584    4619363.05749   3579121.69247                  23263262.0044
        47.0004         35.5004
  21467777.3674   -2780164.22749  -2154012.31748                  21467777.0124
        50.0004         42.0004
  21034095.0234   -1785654.85649  -1384802.49948                  21034094.0664
        49.7504         44.0004
  22417561.6414   -4766636.39249  -3703286.68447                  22417560.5864
        47.7504         38.5004
  23747715.9614    4084531.35049   3166236.39547                  23747718.7504
        45.0004         32.2504
  20917101.9144     709480.76749    551037.21048                  20917101.1844
        51.0004         45.0004
  22806802.9384   -3411918.84649  -2638648.38647                  22806803.5394
        43.7504         33.5004
  23132995.6414   -2249963.72449  -1752141.50147                  23132996.4924
        47.0004         34.7504
 02  7 11 15 25 15.0000000  0  9G 6G10G15G17G18G30G23G26G29
  20373518.2114     268487.84849    208911.74148                  20373517.2074
        51.2504         43.5004
  23273441.4614    4672857.22349   3620805.42447                  23273442.3914
        46.7504         35.0004
  21463560.0004   -2802327.21249  -2171282.17248                  21463559.2974
        49.7504         41.5004
  21031780.4224   -1797817.79049  -1394280.10848                  21031779.5394
        49.0004         43.5004
  22409547.6174   -4808750.37149  -3736102.75747                  22409546.8594
        45.5004         38.5004
  23758733.3984    4142427.43149   3211350.09147                  23758736.1414
        44.0004         31.5004
  20920277.8754     726169.67849    564041.54948                  20920276.6174
        50.5004         44.7504
  22801697.5554   -3438744.49449  -2659551.45747                  22801699.4224
        41.5004         33.5004
  23130091.7814   -2265222.33649  -1764031.33047                  23130092.8524
        46.0004         35.2504
 02  7 11 15 25 30.0000000  0  8G 6G10G15G17G18G23G26G29
  20375681.2034     279855.35749    217769.52648                  20375680.1994
        51.2504         43.7504
  23283638.5474    4726444.78049   3662561.91447                  23283639.2074
        45.7504         34.7504
  21459360.8984   -2824393.10149  -2188476.36948                  21459360.3954
        49.5004         42.0004
  21029483.9614   -1809887.00049  -1403684.68748                  21029482.6644
        49.7504         43.7504
  22401554.6884   -4850751.39949  -3768830.82047                  22401554.4654
        45.7504         38.5004
  20923483.9384     743017.76949    577169.91348                  20923482.4224
        50.5004         45.0004
  22796621.2894   -3465422.14449  -2680339.22047                  22796622.5824
        41.2504         33.5004
  23127216.6024   -2280330.74549  -1775804.12247                  23127217.2234
        47.0004         34.5004
 02  7 11 15 25 45.0000000  0  8G 6G10G15G17G18G23G26G29
  20377873.0474     291371.55249    226743.15648                  20377871.7584
        51.7504         43.5004
  23293853.3674    4780123.85449   3704389.70347                  23293854.4494
        46.0004         34.7504
  21455180.2584   -2846363.40749  -2205596.09748                  21455179.7894
        50.0004         42.0004
  21027204.8444   -1821863.99249  -1413017.42548                  21027204.0704
        49.0004         44.0004
  22393583.1484   -4892640.88149  -3801471.96747                  22393581.9774
        46.0004         38.7504
  20926719.5394     760023.27449    590420.93448                  20926718.6024
        50.5004         44.7504
  22791572.8674   -3491952.86749  -2701012.49247                  22791574.0514
        42.5004         33.7504
  23124370.0944   -2295290.47149  -1787461.05447                  23124371.2734
        47.2504         34.5004
 02  7 11 15 26  0.0000000  0  9G 6G10G15G17G18G22G23G26G29
  20380092.9064     303037.24849    235833.30048                  20380091.5864
        51.5004         43.5004
  23304085.3054    4833894.73349   3746289.06147                  23304086.4884
        46.5004         33.7504
  21451017.7424   -2868237.38149  -2222640.75248                  21451017.2234
        50.5004         42.2504
  21024942.7274   -1833748.25749  -1422277.88348                  21024942.2734
        48.0004         43.7504
  22385633.9534   -4934417.81949  -3834025.39847                  22385632.7274
        46.2504         38.7504
  23369674.0474     -40221.37259    -27847.15657                  23369674.1994
        44.0004         32.2504
  20929986.0234     777186.79149    603795.09948                  20929984.8984
        49.2504         45.0004
  22786551.4844   -3518335.63349  -2721570.46447                  22786553.5044
        41.7504         33.2504
  23121552.0234   -2310100.43849  -1799001.28847                  23121552.3834
        46.2504         34.0004
 02  7 11 15 26 15.0000000  0  9G 6G10G15G17G18G22G23G26G29
  20382341.9224     314857.02549    245043.49848                  20382340.8134
        52.0004         43.5004
  23314336.1564    4887761.51649   3788263.13147                  23314336.8954
        45.0004         34.0004
  21446874.8444   -2890010.50649  -2239606.82948                  21446873.8794
        50.0004         42.7504
  21022700.3284   -1845535.18949  -1431462.50548                  21022699.1564
        47.0004         44.2504
  22377705.9614   -4976077.44249  -3866487.43447                  22377705.0984
        46.7504         38.7504
  23366653.6334     -56096.39949    -40217.29947                  23366653.8914
        44.2504         32.2504
  20933282.6884     794512.57149    617295.68148                  20933282.1604
        49.2504         45.0004
  22781560.5164   -3544565.53449  -2742009.33447                  22781562.5944
        42.5004         33.7504
  23118762.8524   -2324755.95749  -1810421.18647                  23118763.7854
        46.0004         34.0004
 02  7 11 15 26 30.0000000  0  9G 6G10G15G17G18G22G23G26G29
  20384620.1414     326826.74649    254370.54248                  20384618.7114
        52.0004         43.7504
  23324603.6414    4941719.85349   3830308.54447                  23324604.8324
        45.5004         34.2504
  21442749.6024   -2911687.08449  -2256497.66248                  21442749.0904
        50.5004         42.7504
  21020474.7734   -1857229.05449  -1440574.60848                  21020473.8204
        47.7504         44.0004
  22369799.8134   -5017623.72049  -3898861.14347                  22369798.7894
        45.7504         38.5004
  23363664.8284     -71799.90849    -52453.79147                  23363665.2344
        44.0004         31.7504
  20936609.9224     811996.21749    630919.30048                  20936608.8754
        49.5004         44.7504
  22776597.3204   -3570646.38849  -2762332.07547                  22776598.9184
        42.2504         34.0004
  23116002.2274   -2339260.85849  -1821723.72247                  23116003.2664
        46.5004         33.5004
 02  7 11 15 26 45.0000000  0  9G 6G10G15G17G18G22G23G26G29
  20386926.7194     338949.40349    263816.75048                  20386925.7234
        51.7504         43.5004
  23334889.8674    4995772.23049   3872427.22347                  23334890.7814
        45.5004         34.0004
  21438643.9924   -2933264.22649  -2273311.01948                  21438643.3594
        50.0004         43.5004
  21018268.0084   -1868826.97649  -1449611.96248                  21018267.2854
        47.5004         44.0004
  22361916.6724   -5059053.45649  -3931144.03947                  22361915.6644
        46.5004         39.2504
  23360709.8984     -87328.86449    -64554.30147                  23360710.3444
        45.5004         31.7504
  20939967.5634     829640.52949    644668.09848                  20939966.8324
        49.0004         45.0004
  22771663.7504   -3596574.86049  -2782536.07547                  22771664.9844
        42.0004         34.0004
  23113271.5704   -2353612.15449  -1832906.54847                  23113272.1454
        46.0004         33.5004
 02  7 11 15 27  0.0000000  0  9G 6G10G15G17G18G22G23G26G29
  20389262.7424     351225.96149    273382.88248                  20389261.7814
        51.5004         43.5004
  23345193.7344    5049919.26949   3914619.69347                  23345194.4844
        44.0004         32.5004
  21434556.6024   -2954740.91349  -2290046.10248                  21434556.0204
        50.0004         42.5004
  21016079.3834   -1880328.09549  -1458573.86648                  21016078.8094
        47.2504         44.2504
  22354054.8914   -5100365.52649  -3963335.25047                  22354054.0434
        45.7504         39.0004
  23357788.2734    -102682.36549    -76518.06347                  23357788.2814
        44.7504         31.5004
  20943355.9454     847446.11549    658542.57548                  20943355.1684
        48.2504         44.7504
  22766758.0944   -3622349.74349  -2802620.38147                  22766760.3164
        42.0004         34.0004
  23110570.1094   -2367808.60849  -1843968.72447                  23110571.4064
        46.5004         34.2504
 02  7 11 15 27 15.0000000  0  9G 6G10G15G17G18G22G23G26G29
  20391627.7584     363654.45149    283067.41248                  20391627.3134
        51.0004         43.5004
  23355515.0084    5104158.52749   3956884.00147                  23355515.7814
        44.5004         33.2504
  21430488.5394   -2976119.26549  -2306704.56648                  21430488.0354
        50.0004         42.5004
  21013908.7194   -1891734.48249  -1467461.95448                  21013907.9924
        46.7504         43.5004
  22346215.4924   -5141561.86249  -3995436.27547                  22346214.4064
        46.2504         38.5004
  23354899.2034    -117862.26049    -88346.53447                  23354899.3554
        43.5004         31.0004
  20946774.5784     865410.78749    672541.00048                  20946773.9884
        48.2504         45.2504
  22761882.7664   -3647972.67849  -2822586.29547                  22761884.0554
        42.0004         33.5004
  23107897.3364   -2381851.99549  -1854911.63547                  23107899.3914
        45.5004         34.0004
 02  7 11 15 27 30.0000000  0  9G 6G10G15G17G18G22G23G26G29
  20394022.5864     376237.88449    292872.66848                  20394021.6334
        51.0004         43.7504
  23365854.8984    5158492.56949   3999222.17647                  23365855.6954
        44.5004         34.7504
  21426439.5704   -2997396.23849  -2323284.03248                  21426438.8874
        49.0004         42.5004
  21011756.9384   -1903043.16049  -1476273.92048                  21011755.9654
        47.0004         43.7504
  22338398.8674   -5182639.16449  -4027444.56447                  22338397.5514
        45.7504         38.5004
  23352044.5004    -132865.48649   -100037.37247                  23352044.9964
        44.2504         30.7504
  20950223.7584     883537.33649    686665.56948                  20950223.0204
        49.2504         44.7504
  22757035.9844   -3673440.26549  -2842431.17047                  22757037.8634
        42.0004         33.5004
  23105255.1564   -2395739.14249  -1865732.77547                  23105257.1334
        46.0004         33.5004
 02  7 11 15 27 45.0000000  0  9G 6G10G15G17G18G22G23G26G29
  20396446.0234     388974.72349    302797.46648                  20396445.2624
        51.5004         43.2504
  23376212.3204    5212919.49449   4041632.71347                  23376213.7114
        44.2504         33.5004
  21422409.7424   -3018573.42149  -2339785.73248                  21422409.6724
        49.5004         42.5004
  21009622.9304   -1914255.73049  -1485010.99048                  21009622.0554
        46.5004         43.7504
  22330604.6334   -5223598.93249  -4059361.25148                  22330603.6414
        46.2504         39.5004
  23349222.6644    -147693.46149   -111591.63447                  23349223.2114
        43.5004         29.7504
  20953703.6174     901823.98149    700914.88348                  20953702.8164
        49.0004         45.0004
  22752219.4064   -3698753.96949  -2862156.13147                  22752220.5084
        42.5004         33.0004
  23102641.5084   -2409471.42849  -1876433.26747                  23102643.6294
        46.0004         34.0004
 02  7 11 15 28  0.0000000  0  9G 6G10G15G17G18G22G23G26G29
  20398898.4454     401861.08749    312838.79948                  20398897.4964
        51.2504         43.7504
  23386585.8594    5267435.10649   4084112.37047                  23386587.6844
        45.0004         34.0004
  21418397.9144   -3039654.72149  -2356212.71348                  21418397.6914
        49.5004         42.7504
  21007506.8524   -1925376.26049  -1493676.33748                  21007505.8674
        46.2504         43.5004
  22322831.5314   -5264444.72349  -4091189.11747                  22322831.1914
        45.7504         39.0004
  23346433.8834    -162349.95249   -123012.26547                  23346434.2154
        43.0004         29.5004
  20957213.2894     920266.52649    715285.68748                  20957212.4144
        48.5004         44.7504
  22747430.7584   -3723917.14849  -2881763.78447                  22747432.5394
        43.0004         33.0004
  23100057.6334   -2423052.56049  -1887015.97047                  23100059.3364
        44.5004         34.0004
 02  7 11 15 28 15.0000000  0  9G 6G10G15G17G18G22G23G26G29
  20401379.3364     414899.56049    322998.65148                  20401378.4304
        51.5004         43.5004
  23396977.2344    5322041.51649   4126662.79647                  23396978.4304
        46.0004         33.7504
  21414404.8754   -3060637.62649  -2372563.02548                  21414404.4104
        49.7504         42.2504
  21005408.3594   -1936402.06849  -1502267.87848                  21005408.2274
        47.5004         43.7504
  22315080.7114   -5305173.82249  -4122926.05747                  22315080.1954
        45.2504         38.7504
  23343677.1564    -176832.37749   -134297.27947                  23343678.6374
        42.7504         30.5004
  20960752.8914     938867.31649    729779.80748                  20960752.4384
        49.0004         45.2504
  22742671.9144   -3748926.93249  -2901251.91347                  22742673.2504
        41.5004         33.7504
  23097502.4534   -2436479.65649  -1897478.64947                  23097504.0514
        45.7504         34.0004
 02  7 11 15 28 30.0000000  0  9G 6G10G15G17G18G22G23G26G29
  20403889.9534     428090.49749    333277.29448                  20403888.5944
        51.2504         43.5004
  23407385.2734    5376738.52049   4169283.77847                  23407387.0554
        43.5004         32.7504
  21410430.7194   -3081521.95149  -2388836.53948                  21410430.0784
        48.5004         41.7504
  21003328.6094   -1947333.00449  -1510785.49748                  21003327.7624
        46.2504         43.7504
  22307352.8524   -5345785.72949  -4154571.69248                  22307351.6804
        46.0004         39.5004
  23340955.3364    -191140.35249   -145446.36347                  23340956.4414
        43.0004         30.2504
  20964322.8594     957626.40449    744397.25748                  20964321.7894
        48.5004         45.5004
  22737941.9304   -3773782.79549  -2920620.09847                  22737944.2464
        43.0004         34.0004
  23094977.5474   -2449752.43149  -1907821.07747                  23094977.7704
        45.0004         34.5004
 02  7 11 15 28 45.0000000  0  9G 6G10G15G17G18G22G23G26G29
  20406429.2034     441436.73149    343676.94448                  20406428.4104
        51.0004         43.7504
  23417811.4694    5431528.79449   4211977.45547                  23417812.2934
        45.0004         32.5004
  21406475.7034   -3102304.84349  -2405031.00648                  21406474.8094
        49.2504         41.0004
  21001266.9534   -1958166.28449  -1519227.02448                  21001266.2114
        47.7504         43.2504
  22299647.6564   -5386277.46049  -4186123.68047                  22299647.2384
        46.5004         39.0004
  23338265.5864    -205270.90249   -156457.18347                  23338266.4494
        43.7504         30.2504
  20967922.9534     976546.39949    759140.09048                  20967922.2114
        49.0004         45.5004
  22733242.1564   -3798481.52749  -2939865.86547                  22733243.8324
        44.7504         34.5004
  23092481.0394   -2462867.73049  -1918040.80247                  23092481.9224
        45.7504         34.2504
 02  7 11 15 29  0.0000000  0  9G 6G10G15G17G18G22G23G26G29
  20408997.8444     454932.48149    354193.10348                  20408996.4804
        51.7504         44.0004
  23428254.4224    5486406.03649   4254738.88947                  23428255.5664
        44.2504         32.5004
  21402539.2034   -3122992.13249  -2421150.96048                  21402538.5514
        49.2504         41.2504
  20999223.2344   -1968907.77749  -1527597.03948                  20999222.2894
        48.2504         43.5004
  22291964.3914   -5426654.54149  -4217586.32847                  22291963.3634
        46.0004         39.0004
  23335609.9064    -219229.71449   -167334.17947                  23335610.7384
        43.7504         29.7504
  20971552.7504     995621.26949    774003.62148                  20971551.9104
        50.0004         45.0004
  22728571.3364   -3823028.50149  -2958993.35747                  22728572.8674
        44.5004         35.2504
  23090014.2344   -2475831.04749  -1928142.09347                  23090014.9304
        46.5004         34.2504
 02  7 11 15 29 15.0000000  0  9G 6G10G15G17G18G22G23G26G29
  20411594.2664     468579.09349    364826.81748                  20411593.5634
        51.5004         44.2504
  23438714.0314    5541371.26849   4297568.90047                  23438715.0594
        44.7504         33.5004
  21398621.1484   -3143582.54949  -2437195.44748                  21398620.6374
        48.7504         41.5004
  20997196.5394   -1979556.25649  -1535894.55748                  20997196.2544
        49.2504         43.0004
  22284302.8284   -5466915.43549  -4248958.44247                  22284301.5904
        45.5004         39.2504
  23332985.4064    -233015.50749   -178076.35347                  23332987.0044
        42.2504         29.2504
  20975212.5704    1014852.12449    788988.68748                  20975211.6454
        49.5004         45.2504
  22723928.9304   -3847422.12649  -2978001.35447                  22723930.7384
        44.2504         35.5004
  23087577.0164   -2488641.01949  -1938123.89947                  23087577.4344
        46.2504         34.0004
 02  7 11 15 29 30.0000000  0  9G 6G10G15G17G18G22G23G26G29
  20414220.3914     482378.86049    375579.87048                  20414219.2704
        51.2504         44.0004
  23449190.8444    5596426.35449   4340468.92647                  23449192.1334
        45.5004         33.0004
  21394721.4774   -3164073.92449  -2453162.75248                  21394720.9534
        49.7504         41.2504
  20995188.4224   -1990109.45849  -1544117.83848                  20995187.2074
        49.5004         44.0004
  22276663.6484   -5507057.80649  -4280238.19747                  22276662.9694
        46.2504         39.2504
  23330396.6254    -246625.80749   -188681.77847                  23330397.0864
        40.7504         30.0004
  20978901.6414    1034240.91249    804096.82248                  20978901.0474
        50.0004         45.0004
  22719316.8444   -3871659.93749  -2996887.94947                  22719318.1914
        45.5004         35.0004
  23085168.1954   -2501295.24249  -1947984.32447                  23085169.8594
        45.0004         34.2504
 02  7 11 15 29 45.0000000  0  9G 6G10G15G17G18G22G23G26G29
  20416874.3834     496326.88749    386448.44848                  20416873.8014
        51.2504         44.2504
  23459683.5004    5651565.91049   4383434.75547                  23459684.6954
        44.5004         33.5004
  21390840.4224   -3184471.15649  -2469056.68748                  21390839.4104
        49.0004         41.5004
  20993197.6724   -2000572.40049  -1552270.79448                  20993196.8834
        49.2504         44.0004
  22269046.7034   -5547086.39149  -4311429.28847                  22269045.9614
        45.2504         39.2504
  23327839.0634    -260065.55249   -199154.31047                  23327840.2504
        43.0004         30.5004
  20982620.3834    1053782.45749    819323.98848                  20982620.1564
        49.7504         45.2504
  22714733.8914   -3895746.46449  -3015656.66747                  22714734.3754
        45.5004         35.5004
  23082789.8054   -2513798.36349  -1957727.04147                  23082790.2704
        46.2504         35.5004
 02  7 11 15 30  0.0000000  0  9G 6G10G15G17G18G22G23G26G29
  20419558.6484     510430.67149    397438.39648                  20419557.4304
        51.5004         44.0004
  23470193.5164    5706797.09149   4426471.98947                  23470194.9694
        44.0004         32.5004
  21386978.1414   -3204766.69349  -2484871.38348                  21386977.1884
        49.7504         42.2504
  20991225.0554   -2010937.77249  -1560347.70948                  20991224.5084
        49.5004         43.7504
  22261452.3524   -5586993.47349  -4342525.69748                  22261451.7034
        47.0004         39.7504
  23325315.1884    -273327.20049   -209488.06447                  23325316.6644
        43.5004         30.5004
  20986369.4774    1073484.01949    834675.84148                  20986368.7154
        50.2504         44.7504
  22710180.0164   -3919673.94649  -3034301.44547                  22710180.5394
        45.5004         34.5004
  23080440.5784   -2526142.78249  -1967346.06547                  23080441.9804
        46.5004         35.5004
 02  7 11 15 30 15.0000000  0  9G 6G10G15G17G18G22G23G26G29
  20422271.3284     524686.02349    408546.45048                  20422270.1524
        51.7504         44.2504
  23480720.6644    5762115.28149   4469577.03147                  23480721.5124
        43.7504         33.0004
  21383134.9924   -3224964.77949  -2500610.14848                  21383134.2194
        50.2504         42.5004
  20989270.6094   -2021209.76949  -1568351.86748                  20989269.9414
        48.0004         44.2504
  22253880.9844   -5626783.02849  -4373530.53948                  22253880.1604
        46.2504         39.5004
  23322825.2034    -286414.86449   -219686.24047                  23322826.0784
        43.7504         30.2504
  20990148.1954    1093341.23349    850148.98748                  20990147.4494
        50.2504         45.2504
  22705656.3674   -3943446.20249  -3052825.28447                  22705656.8594
        44.7504         34.5004
  23078121.2114   -2538332.32349  -1976844.40447                  23078122.1884
        46.5004         35.5004
 02  7 11 15 30 30.0000000  0  9G 6G10G15G17G18G22G23G26G29
  20425012.6094     539093.16649    419772.79748                  20425012.0864
        51.0004         43.7504
  23491263.7424    5817520.34549   4512749.77447                  23491265.4844
        43.5004         33.2504
  21379310.0474   -3245065.27549  -2516272.86548                  21379309.4734
        50.0004         42.7504
  20987333.6024   -2031388.21649  -1576283.12348                  20987332.5824
        48.5004         44.5004
  22246331.4534   -5666454.69749  -4404443.50147                  22246331.4454
        46.5004         39.2504
  23320367.4614    -299328.17949   -229748.57147                  23320368.7154
        44.0004         31.0004
  20993956.5944    1113353.96349    865743.31048                  20993955.4104
        49.7504         45.5004
  22701162.1094   -3967062.70949  -3071227.74247                  22701162.9224
        45.0004         33.7504
  23075831.0164   -2550366.76249  -1986221.89147                  23075832.1604
        47.2504         35.7504
 02  7 11 15 30 45.0000000  0  9G 6G10G15G17G18G22G23G26G29
  20427783.5944     553652.79949    431117.94148                  20427782.3204
        51.0004         43.7504
  23501823.3134    5873012.57749   4555990.40947                  23501825.5984
        44.2504         33.5004
  21375503.8204   -3265067.58249  -2531859.08648                  21375502.8284
        50.0004         43.2504
  20985414.7664   -2041472.49649  -1584141.00948                  20985413.8914
        48.5004         44.2504
  22238804.6414   -5706007.64049  -4435263.96648                  22238804.1914
        47.5004         39.5004
  23317943.8054    -312066.40349   -239674.44547                  23317944.3874
        44.0004         30.2504
  20997794.9924    1133522.66849    881459.17248                  20997793.5864
        49.5004         44.7504
  22696697.6884   -3990522.50849  -3089508.10047                  22696698.9924
        46.0004         34.7504
  23073570.6254   -2562245.16949  -1995477.79147                  23073571.9614
        47.5004         34.7504
 02  7 11 15 31  0.0000000  0  9G 6G10G15G17G18G22G23G26G29
  20430583.1484     568364.08649    442581.26648                  20430582.0704
        51.7504         43.5004
  23512400.2664    5928590.73749   4599298.02547                  23512401.5634
        45.0004         34.0004
  21371715.9144   -3284972.59149  -2547369.48548                  21371715.2424
        50.5004         43.2504
  20983513.5634   -2051463.49649  -1591926.22048                  20983512.0704
        47.7504         44.2504
  22231300.7664   -5745442.47249  -4465992.39048                  22231299.8444
        46.7504         39.5004
  23315553.1804    -324630.27649   -249464.49847                  23315553.4024
        44.5004         30.7504
  21001662.2034    1153846.31749    897295.76848                  21001661.4844
        49.2504         45.0004
  22692263.5004   -4013826.07049  -3107666.72647                  22692264.0704
        45.2504         34.5004
  23071339.8834   -2573968.14949  -2004612.57547                  23071341.2854
        46.7504         34.7504
 02  7 11 15 31 15.0000000  0  9G 6G10G15G17G18G22G23G26G29
  20433411.2584     583225.52249    454161.60148                  20433409.8834
        51.2504         43.5004
  23522992.0864    5984252.92249   4642671.10947                  23522993.9774
        44.5004         32.7504
  21367946.3594   -3304781.86449  -2562805.27148                  21367946.1254
        50.0004         43.0004
  20981629.9534   -2061362.90349  -1599640.03548                  20981628.6484
        47.0004         44.0004
  22223818.8594   -5784760.54749  -4496629.82947                  22223818.0594
        47.0004         39.2504
  23313195.2504    -337021.47749   -259119.98147                  23313195.6414
        44.7504         30.2504
  21005558.9534    1174323.06749    913251.68048                  21005557.8324
        48.2504         45.0004
  22687858.3754   -4036974.69049  -3125704.58847                  22687859.3674
        46.7504         35.2504
  23069137.9924   -2585537.24149  -2013627.44247                  23069138.6564
        46.0004         35.0004
 02  7 11 15 31 30.0000000  0  9G 6G10G15G17G18G22G23G26G29
  20436267.6414     598237.41449    465859.16748                  20436266.8324
        51.0004         43.5004
  23533599.7974    6039999.09649   4686109.63347                  23533601.4884
        43.5004         32.5004
  21364194.8594   -3324495.11549  -2578166.25148                  21364194.6174
        50.7504         42.7504
  20979763.2034   -2071170.31049  -1607282.16948                  20979762.4654
        48.2504         44.2504
  22216359.0944   -5823961.43049  -4527175.94948                  22216358.4614
        47.0004         40.0004
  23310869.6174    -349239.43549   -268640.46847                  23310870.8014
        42.5004         31.5004
  21009484.5474    1194953.02449    929326.95548                  21009483.7194
        49.2504         45.2504
  22683482.9844   -4059967.63849  -3143621.16647                  22683484.4144
        46.0004         35.7504
  23066966.0864   -2596951.90149  -2022521.97047                  23066966.5274
        45.7504         34.5004
 02  7 11 15 31 45.0000000  0  9G 6G10G15G17G18G22G23G26G29
  20439152.4224     613396.61149    477671.50248                  20439151.4144
        51.5004         44.0004
  23544223.7894    6095825.62549   4729610.78647                  23544224.2664
        44.5004         31.7504
  21360460.9534   -3344115.63249  -2593454.97048                  21360460.9654
        50.0004         43.2504
  20977913.8754   -2080889.07949  -1614855.25048                  20977913.0314
        47.2504         43.7504
  22208920.8984   -5863048.20249  -4557633.16348                  22208920.1884
        46.7504         40.5004
  23308578.1414    -361287.25149   -278028.36947                  23308578.5554
        42.5004         31.7504
  21013438.7034    1215732.72449    945518.91748                  21013437.8364
        49.2504         45.2504
  22679136.7664   -4082807.92949  -3161418.79447                  22679138.2234
        46.2504         35.5004
  23064822.7274   -2608215.01249  -2031298.42247                  23064823.3444
        45.0004         34.2504
 02  7 11 15 32  0.0000000  0  9G 6G10G15G17G18G22G23G26G29
  20442066.2114     628707.58649    489602.12748                  20442065.2304
        50.7504         44.0004
  23554864.0314    6151736.70949   4773177.81647                  23554863.8914
        44.5004         33.0004
  21356745.8054   -3363638.90149  -2608667.90948                  21356745.9454
        49.7504         43.2504
  20976082.0784   -2090514.78449  -1622355.80748                  20976081.2384
        47.0004         44.5004
  22201505.7114   -5902016.05049  -4587997.70248                  22201505.2544
        47.0004         40.2504
  23306318.4534    -373160.49349   -287280.24747                  23306319.3524
        44.5004         31.0004
  21017422.1804    1236666.43049    961830.88448                  21017421.8054
        48.5004         45.5004
  22674820.4774   -4105490.62049  -3179093.60847                  22674822.0204
        45.7504         34.7504
  23062709.4304   -2619321.84149  -2039953.10247                  23062709.6054
        46.0004         34.0004
 02  7 11 15 32 15.0000000  0  9G 6G10G15G17G18G22G23G26G29
  20445008.4924     644170.97849    501651.51048                  20445007.4964
        51.0004         44.0004
  23565519.0864    6207732.63149   4816810.95747                  23565520.0314
        44.5004         32.2504
  21353049.2584   -3383064.33349  -2623804.61048                  21353049.2814
        49.7504         43.0004
  20974268.8284   -2100046.75649  -1629783.31948                  20974268.0084
        46.7504         44.0004
  22194112.8834   -5940864.16849  -4618268.94548                  22194112.6374
        46.0004         40.2504
  23304091.9144    -384858.35949   -296395.45947                  23304093.4454
        40.7504         31.0004
  21021435.3054    1257754.47449    978263.11148                  21021434.2424
        48.5004         44.7504
  22670534.0084   -4128014.87549  -3196644.95747                  22670535.7894
        46.5004         35.5004
  23060625.4534   -2630271.75949  -2048485.49447                  23060625.9184
        44.0004         34.5004
 02  7 11 15 32 30.0000000  0  9G 6G10G15G17G18G22G23G26G29
  20447979.3364     659782.08849    513815.99148                  20447978.3714
        50.5004         43.7504
  23576189.9064    6263808.17249   4860506.15147                  23576191.4494
        44.0004         31.5004
  21349369.9694   -3402396.70449  -2638868.81648                  21349369.9574
        49.7504         42.5004
  20972471.1954   -2109489.89449  -1637141.62548                  20972470.6484
        47.5004         44.0004
  22186742.4384   -5979597.12049  -4648450.46248                  22186741.9224
        48.2504         40.2504
  23301898.2584    -396385.57849   -305377.73347                  23301899.3054
        44.0004         30.5004
  21025476.3674    1278991.92149    994811.76848                  21025475.5514
        50.5004         45.0004
  22666277.2274   -4150385.08149  -3214076.29447                  22666278.0634
        45.7504         35.0004
  23058570.5314   -2641069.29749  -2056899.15247                  23058571.8094
        45.2504         33.7504
 02  7 11 15 32 45.0000000  0  9G 6G10G15G17G18G22G23G26G29
  20450979.2974     675545.36849    526099.04248                  20450978.0554
        51.0004         44.0004
  23586876.5784    6319967.32749   4904266.47847                  23586878.2154
        43.2504         31.5004
  21345710.0784   -3421631.62849  -2653857.07648                  21345710.2464
        49.2504         42.5004
  20970691.9924   -2118839.74349  -1644427.23048                  20970691.6414
        48.0004         44.5004
  22179394.3444   -6018210.21249  -4678538.56048                  22179393.7974
        48.0004         40.5004
  23299738.4224    -407737.57449   -314223.44947                  23299739.3164
        44.5004         30.7504
  21029547.2424    1300382.91249   1011480.05548                  21029546.4264
        49.7504         45.2504
  22662049.9384   -4172596.49749  -3231383.89547                  22662050.8594
        46.0004         34.5004
  23056545.7974   -2651709.79349  -2065190.43347                  23056546.5944
        45.2504         33.5004
 02  7 11 15 33  0.0000000  0  9G 6G10G15G17G18G22G23G26G29
  20454007.5784     691459.68749    538499.80248                  20454006.6604
        51.2504         43.7504
  23597579.2504    6376208.69449   4948090.87447                  23597580.5514
        43.5004         32.5004
  21342068.5084   -3440770.24049  -2668770.28648                  21342068.5274
        49.7504         42.5004
  20968930.5164   -2128097.58149  -1651641.13748                  20968930.1604
        47.0004         44.7504
  22172069.2584   -6056704.36449  -4708533.98148                  22172069.0124
        47.7504         40.2504
  23297611.2584    -418915.43149   -322933.47247                  23297611.4734
        45.5004         31.5004
  21033646.7974    1321926.13049   1028266.96748                  21033645.9454
        50.2504         44.7504
  22657853.3984   -4194649.95449  -3248568.39247                  22657854.5314
        46.2504         34.0004
  23054550.1414   -2662194.22849  -2073360.12447                  23054552.1524
        43.0004         33.2504
 02  7 11 15 33 15.0000000  0  9G 6G10G15G17G18G22G23G26G29
  20457064.1334     707524.18849    551017.58448                  20457062.9224
        51.2504         43.7504
  23608297.2584    6432530.98249   4991978.32947                  23608298.7194
        42.7504         32.2504
  21338444.3524   -3459813.41349  -2683609.12848                  21338444.4104
        49.2504         42.2504
  20967186.2344   -2137264.30949  -1658784.04848                  20967185.4104
        47.7504         44.0004
  22164766.3914   -6095080.39849  -4738437.36148                  22164766.0594
        48.0004         40.7504
  23295517.2504    -429920.03749   -331508.48747                  23295517.9924
        46.0004         32.0004
  21037774.9384    1343620.41449   1045171.59848                  21037774.1454
        50.2504         44.7504
  22653687.0474   -4216545.92349  -3265630.18647                  22653687.6644
        45.7504         33.5004
  23052584.6414   -2672523.19449  -2081408.65747                  23052585.9184
        42.0004         33.2504
 02  7 11 15 33 30.0000000  0  9G 6G10G15G17G18G22G23G26G29
  20460149.8284     723739.10749    563652.57748                  20460148.8284
        50.7504         43.5004
  23619030.3204    6488934.12949   5035928.78347                  23619031.3834
        42.7504         31.7504
  21334838.9774   -3478760.88049  -2698373.38948                  21334838.3164
        49.7504         42.5004
  20965459.1414   -2146339.71349  -1665855.80448                  20965458.4224
        48.2504         44.0004
  22157486.4694   -6133337.85849  -4768248.35048                  22157485.8324
        47.7504         40.0004
  23293456.1954    -440750.99249   -339948.20447                  23293456.9264
        45.2504         33.0004
  21041932.0004    1365465.70049   1062193.88148                  21041931.3674
        50.2504         45.0004
  22649550.0474   -4238283.93249  -3282568.88447                  22649551.3674
        45.0004         34.0004
  23050649.0394   -2682696.36749  -2089335.79747                  23050650.3594
        42.7504         33.2504
 02  7 11 15 33 45.0000000  0  9G 6G10G15G17G18G22G23G26G29
  20463263.4304     740101.01149    576402.09748                  20463262.2894
        50.7504         43.5004
  23629777.9454    6545414.43549   5079939.36347                  23629779.2854
        41.2504         32.0004
  21331250.9774   -3497616.21149  -2713065.85248                  21331249.8364
        49.7504         42.7504
  20963748.9614   -2155327.37849  -1672859.19148                  20963748.1214
        47.7504         43.2504
  22150228.1024   -6171480.00849  -4797969.48348                  22150227.7664
        46.7504         40.0004
  23291427.8204    -451411.77849   -348255.32147                  23291428.1094
        43.0004         32.5004
  21046116.8444    1387458.32149   1079330.98948                  21046116.0394
        50.5004         44.7504
  22645443.4774   -4259867.11149  -3299386.94647                  22645444.1294
        46.0004         34.2504
  23048742.3524   -2692717.06349  -2097144.12547                  23048743.5124
        42.5004         34.0004
 02  7 11 15 34  0.0000000  0  9G 6G10G15G17G18G22G23G26G29
  20466405.8134     756614.00349    589269.34748                  20466404.9774
        50.7504         43.2504
  23640540.9614    6601975.54849   5124012.92147                  23640542.2304
        42.5004         31.5004
  21327681.4304   -3516375.42249  -2727683.41248                  21327680.7344
        50.0004         42.7504
  20962055.9924   -2164223.27349  -1679791.06848                  20962055.2664
        47.7504         43.5004
  22142992.9384   -6209502.53249  -4827597.41748                  22142992.1764
        47.0004         39.7504
  23289431.9064    -461898.24849   -356426.60447                  23289432.5864
        42.2504         33.5004
  21050330.8594    1409602.12849   1096585.89048                  21050330.1174
        49.7504         44.7504
  22641366.6884   -4281291.06649  -3316080.92947                  22641367.6724
        46.2504         34.2504
  23046865.3594   -2702581.04349  -2104830.33047                  23046865.8444
        42.0004         33.0004
 02  7 11 15 34 15.0000000  0  9G 6G10G15G17G18G22G23G26G29
  20469575.9924     773273.72049    602250.92848                  20469575.5634
        51.2504         44.0004
  23651318.5394    6658612.64949   5168145.69447                  23651319.5164
        41.2504         31.5004
  21324129.0084   -3535042.87949  -2742229.48648                  21324128.2304
        50.0004         42.5004
  20960379.6094   -2173031.70649  -1686654.78548                  20960379.2274
        48.2504         43.5004
  22135779.3984   -6247409.72449  -4857135.47048                  22135779.0274
        47.2504         40.0004
  23287469.0314    -472214.62349   -364465.35947                  23287469.2934
        45.0004         32.7504
  21054572.6564    1431892.41149   1113954.93448                  21054571.5944
        50.5004         45.2504
  22637318.7814   -4302560.00249  -3332654.13147                  22637320.4494
        45.5004         34.7504
  23045017.5084   -2712292.40449  -2112397.61747                  23045017.7304
        42.7504         33.5004
 02  7 11 15 34 30.0000000  0  9G 6G10G15G17G18G22G23G26G29
  20472774.4224     790080.42749    615347.04948                  20472773.9414
        51.0004         43.7504
  23662111.0394    6715325.62549   5212337.58547                  23662112.6764
        43.0004         31.0004
  21320594.1174   -3553618.35049  -2756703.87048                  21320593.6844
        50.2504         42.2504
  20958720.0474   -2181752.55549  -1693450.26648                  20958719.2074
        49.5004         43.5004
  22128587.6174   -6285201.13849  -4886583.30448                  22128587.0744
        48.0004         40.7504
  23285537.6724    -482360.70049   -372371.39847                  23285538.4104
        44.2504         32.5004
  21058842.2034    1454329.20849   1131438.13648                  21058841.4844
        50.0004         45.5004
  22633301.1484   -4323673.16849  -3349105.92847                  22633302.7114
        46.5004         35.2504
  23043198.0784   -2721850.71049  -2119845.67247                  23043198.7664
        45.7504         33.0004
 02  7 11 15 34 45.0000000  0  9G 6G10G15G17G18G22G23G26G29
  20476000.7114     807035.92049    628559.10648                  20476000.0824
        51.2504         43.5004
  23672918.0634    6772115.98949   5256589.77947                  23672919.2774
        42.7504         31.7504
  21317076.8594   -3572100.00349  -2771105.15448                  21317076.8874
        49.5004         42.7504
  20957077.8134   -2190384.07049  -1700176.13048                  20957076.9804
        48.5004         43.5004
  22121418.8834   -6322874.65949  -4915939.26648                  22121417.8594
        47.0004         40.7504
  23283640.4694    -492334.51549   -380143.22747                  23283640.3094
        45.7504         32.0004
  21063139.7814    1476914.12849   1149036.76048                  21063139.1564
        50.0004         45.2504
  22629313.5314   -4344628.56349  -3365434.79447                  22629315.3834
        46.0004         34.5004
  23041409.3674   -2731254.05749  -2127172.94247                  23041409.3554
        44.2504         34.0004
 02  7 11 15 35  0.0000000  0  9G 6G10G15G17G18G22G23G26G29
  20479256.3594     824144.40749    641890.38248                  20479255.7384
        51.0004         43.5004
  23683740.3674    6828987.44749   5300905.15247                  23683741.7154
        43.0004         33.0004
  21313579.0394   -3590483.68649  -2785430.10448                  21313578.0314
        49.2504         42.5004
  20955452.8834   -2198922.13149  -1706829.17548                  20955452.2894
        47.0004         43.7504
  22114272.9774   -6360425.84949  -4945199.92648                  22114271.8984
        46.5004         40.5004
  23281775.8594    -502131.81049   -387777.47747                  23281775.4494
        45.7504         32.2504
  21067466.7894    1499651.09149   1166753.86648                  21067466.0204
        49.7504         45.0004
  22625356.7034   -4365421.62249  -3381637.17147                  22625358.2734
        46.0004         36.0004
  23039649.5634   -2740497.97649  -2134375.99047                  23039650.3284
        42.0004         34.0004
 02  7 11 15 35 15.0000000  0  9G 6G10G15G17G18G22G23G26G29
  20482540.1094     841399.57849    655335.94848                  20482539.2854
        51.0004         44.0004
  23694577.1804    6885933.35449   5345278.53447                  23694578.8484
        43.7504         33.0004
  21310098.1094   -3608775.82449  -2799683.72148                  21310097.0234
        50.0004         42.7504
  20953844.9844   -2207373.00949  -1713414.28448                  20953843.8364
        48.0004         43.7504
  22107149.4694   -6397860.96149  -4974370.13048                  22107148.6054
        47.5004         40.2504
  23279943.8754    -511758.93549   -395279.15347                  23279943.1414
        45.2504         32.2504
  21071820.7894    1522533.45549   1184584.25948                  21071820.2974
        50.2504         44.7504
  22621429.4924   -4386058.33449  -3397717.72047                  22621431.0084
        46.5004         35.2504
  23037920.1884   -2749588.79849  -2141459.74047                  23037920.7274
        41.7504         33.7504
 02  7 11 15 35 30.0000000  0  9G 6G10G15G17G18G22G23G26G29
  20485851.7344     858802.18249    668896.40548                  20485850.7304
        50.2504         44.0004
  23705427.3364    6942954.04549   5389710.18047                  23705428.9024
        42.5004         32.2504
  21306634.6414   -3626975.66849  -2813865.42648                  21306633.9774
        49.0004         42.2504
  20952253.7424   -2215736.16149  -1719931.03048                  20952252.7704
        48.2504         43.5004
  22100048.0234   -6435179.13549  -5003449.20748                  22100047.0474
        47.2504         40.0004
  23278144.5554    -521215.00849   -402647.52647                  23278144.3834
        45.5004         32.5004
  21076203.0704    1545561.72249   1202528.34648                  21076202.0824
        50.5004         45.0004
  22617532.6174   -4406537.77749  -3413675.71647                  22617534.1414
        45.5004         35.0004
  23036219.0474   -2758525.37149  -2148423.29847                  23036220.1454
        45.7504         33.7504
 02  7 11 15 35 45.0000000  0  9G 6G10G15G17G18G22G23G26G29
  20489191.1644     876351.34749    682571.07648                  20489190.3014
        51.0004         43.5004
  23716292.5634    7000048.21849   5434199.09347                  23716293.7584
        43.0004         31.2504
  21303188.6804   -3645084.14449  -2827975.93448                  21303188.0664
        49.7504         42.2504
  20950678.3914   -2224012.39549  -1726380.04748                  20950677.7194
        49.5004         43.5004
  22092968.2664   -6472381.16249  -5032437.78348                  22092967.9414
        47.5004         40.0004
  23276377.6174    -530501.01649   -409883.37947                  23276377.7034
        44.5004         32.0004
  21080612.6724    1568734.78649   1220585.27048                  21080612.1054
        49.2504         44.7504
  22613665.1414   -4426860.43049  -3429511.53947                  22613666.4104
        46.0004         34.7504
  23034547.8594   -2767308.62849  -2155267.37147                  23034549.0704
        46.7504         34.5004
 02  7 11 15 36  0.0000000  0  9G 6G10G15G17G18G22G23G26G29
  20492558.9924     894050.01149    696362.23548                  20492558.0824
        50.5004         43.5004
  23727171.6804    7057218.66249   5478747.46747                  23727172.4884
        43.2504         32.0004
  21299760.5864   -3663098.31549  -2842012.95548                  21299760.2194
        49.5004         42.5004
  20949120.4774   -2232198.91649  -1732759.14748                  20949119.8794
        49.0004         43.5004
  22085912.4924   -6509463.87249  -5061333.38348                  22085910.8874
        46.5004         40.0004
  23274643.0164    -539613.88049   -416984.29247                  23274643.9654
        45.0004         31.7504
  21085050.7974    1592055.32249   1238757.12148                  21085049.8054
        50.2504         45.0004
  22609828.8284   -4447023.11749  -3445222.71047                  22609829.8874
        46.5004         35.0004
  23032906.6024   -2775935.32849  -2161989.46147                  23032907.3714
        45.0004         34.7504
 02  7 11 15 36 15.0000000  0  9G 6G10G15G17G18G22G23G26G29
  20495954.8914     911894.03149    710266.63948                  20495953.4184
        50.5004         43.5004
  23738064.5474    7114460.63249   5523351.54647                  23738065.1094
        42.7504         31.0004
  21296349.9534   -3681022.31949  -2855979.71148                  21296348.8014
        49.0004         42.7504
  20947579.0704   -2240299.94849  -1739071.63948                  20947578.2114
        48.7504         44.0004
  22078877.3204   -6546431.16949  -5090139.04848                  22078875.8594
        47.5004         40.0004
  23272941.3594    -548557.71249   -423953.53147                  23272941.8984
        42.7504         32.5004
  21089515.6094    1615518.89649   1257040.41648                  21089514.8054
        49.7504         45.0004
  22606021.3524   -4467029.70249  -3460812.25047                  22606022.8404
        46.5004         35.5004
  23031294.0164   -2784409.54849  -2168592.73747                  23031294.7074
        43.5004         34.5004
 02  7 11 15 36 30.0000000  0  9G 6G10G15G17G18G22G23G26G29
  20499379.0474     929887.63149    724287.61948                  20499378.2274
        51.0004         43.7504
  23748970.7114    7171778.23949   5568014.60247                  23748972.1764
        44.0004         31.2504
  21292957.1254   -3698851.90549  -2869872.89048                  21292956.1054
        49.7504         42.5004
  20946054.5474   -2248311.27049  -1745314.24448                  20946053.7544
        47.0004         44.2504
  22071865.2344   -6583278.46449  -5118851.20548                  22071864.2734
        47.7504         40.2504
  23271272.4224    -557328.11649   -430787.61647                  23271272.6644
        40.7504         32.2504
  21094008.8134    1639129.61049   1275438.37048                  21094007.8954
        50.0004         44.5004
  22602245.2114   -4486875.54549  -3476276.53947                  22602246.2814
        47.0004         35.5004
  23029711.1254   -2792726.84749  -2175073.72147                  23029712.0004
        42.7504         34.2504
 02  7 11 15 36 45.0000000  0  9G 6G10G15G17G18G22G23G26G29
  20502830.5394     948025.93249    738421.34148                  20502829.4694
        50.7504         44.0004
  23759891.6094    7229166.18549   5612732.40747                  23759893.3404
        43.0004         31.7504
  21289581.3754   -3716592.08449  -2883696.40948                  21289580.2854
        49.0004         42.5004
  20944546.3524   -2256237.77849  -1751490.74548                  20944545.7934
        47.0004         44.5004
  22064875.6174   -6620010.71949  -5147473.72848                  22064874.5474
        46.0004         40.0004
  23269635.4844    -565930.01949   -437490.40247                  23269635.9224
        40.2504         31.7504
  21098528.4694    1662882.28849   1293946.93848                  21098527.9734
        48.7504         44.7504
  22598498.1174   -4506565.30049  -3491619.19447                  22598499.6094
        45.2504         35.7504
  23028157.0634   -2800891.91449  -2181436.12447                  23028157.7664
        42.5004         34.5004
 02  7 11 15 37  0.0000000  0  9G 6G10G15G17G18G22G23G26G29
  20506310.0944     966310.57949    752669.09748                  20506309.1994
        51.0004         43.5004
  23770826.3834    7286625.66749   5657505.98847                  23770827.7384
        43.7504         32.7504
  21286223.0084   -3734241.18449  -2897448.96248                  21286221.2544
        50.0004         43.0004
  20943054.3914   -2264077.92749  -1757599.96248                  20943054.0984
        46.7504         44.5004
  22057907.9304   -6656625.94749  -5176005.05448                  22057906.6454
        46.7504         39.5004
  23268031.0084    -574361.62849   -444060.51247                  23268030.6994
        42.0004         30.5004
  21103075.7584    1686778.25749   1312567.16948                  21103075.3134
        49.7504         44.5004
  22594781.4384   -4526096.97149  -3506838.64747                  22594782.8754
        47.7504         35.7504
  23026633.1334   -2808902.98249  -2187678.49647                  23026633.2584
        42.5004         34.5004
 02  7 11 15 37 15.0000000  0  9G 6G10G15G17G18G22G23G26G29
  20509817.4534     984742.29849    767031.46248                  20509816.6484
        50.7504         43.5004
  23781774.5864    7344157.00649   5702335.53647                  23781776.1374
        45.0004         32.7504
  21282881.8364   -3751798.59649  -2911130.06948                  21282880.4304
        49.5004         42.7504
  20941579.0864   -2271830.95349  -1763641.28348                  20941578.5124
        47.5004         44.5004
  22050962.7664   -6693123.20549  -5204444.46448                  22050961.4344
        46.5004         40.5004
  23266459.4384    -582622.34949   -450497.45147                  23266458.8244
        42.7504         31.0004
  21107650.3054    1710817.99549   1331299.41648                  21107650.0084
        49.0004         45.0004
  22591094.7344   -4545469.60449  -3521934.18147                  22591096.4614
        46.2504         35.5004
  23025137.7734   -2816759.17649  -2193800.21047                  23025138.3204
        42.7504         33.2504
 02  7 11 15 37 30.0000000  0  9G 6G10G15G17G18G22G23G26G29
  20513352.1094    1003316.93949    781505.18748                  20513351.1804
        51.5004         43.5004
  23792735.1644    7401755.74049   5747217.61847                  23792737.0904
        44.5004         32.0004
  21279557.4064   -3769268.40849  -2924742.90548                  21279556.3324
        49.2504         42.2504
  20940119.5864   -2279500.99849  -1769617.94548                  20940119.0044
        48.0004         44.5004
  22044038.9384   -6729506.61149  -5232795.14248                  22044037.9144
        46.7504         40.0004
  23264918.4064    -590716.12549   -456804.29247                  23264918.5434
        42.5004         31.0004
  21112251.5004    1734997.12449   1350140.28948                  21112251.0784
        50.0004         45.0004
  22587438.1724   -4564686.96349  -3536908.73847                  22587439.5514
        45.5004         35.5004
  23023671.8364   -2824464.31949  -2199804.18247                  23023671.4064
        42.7504         34.7504
 02  7 11 15 37 45.0000000  0  9G 6G10G15G17G18G22G23G26G29
  20516914.8524    1022039.93549    796094.52348                  20516914.0664
        50.5004         43.2504
  23803709.2194    7459427.04449   5792156.23947                  23803711.4454
        43.5004         32.0004
  21276250.5554   -3786645.19649  -2938283.26048                  21276249.8984
        49.5004         42.5004
  20938676.5004   -2287082.92649  -1775525.95048                  20938676.1564
        48.0004         44.0004
  22037138.0164   -6765770.49949  -5261052.69248                  22037137.2304
        46.5004         40.0004
  23263411.1334    -598637.54649   -462976.84647                  23263411.2854
        39.5004         29.7504
  21116880.1254    1759320.77349   1369093.77248                  21116879.3524
        50.0004         45.5004
  22583811.7274   -4583743.36549  -3551757.86247                  22583813.5044
        47.0004         36.0004
  23022234.9774   -2832012.95049  -2205686.21347                  23022235.6914
        43.0004         34.5004
 02  7 11 15 38  0.0000000  0  9G 6G10G15G17G18G22G23G26G29
  20520505.4924    1040907.97449    810796.85748                  20520504.1414
        50.7504         43.5004
  23814696.8914    7517167.24849   5837148.54747                  23814698.6524
        42.0004         30.7504
  21272960.9694   -3803932.42849  -2951753.84548                  21272960.3244
        49.0004         42.5004
  20937249.7504   -2294579.94549  -1781367.78648                  20937249.4454
        48.0004         43.7504
  22030259.5084   -6801918.06449  -5289219.62048                  22030258.8914
        46.5004         39.7504
  23261935.6724    -606389.89949   -469017.62847                  23261935.7814
        41.5004         30.5004
  21121535.8134    1783785.31349   1388157.03948                  21121535.1254
        50.0004         44.7504
  22580215.2894   -4602642.00849  -3566484.06147                  22580217.0554
        46.0004         35.5004
  23020828.2894   -2839408.31449  -2211448.84747                  23020828.3754
        43.2504         34.0004
 02  7 11 15 38 15.0000000  0  9G 6G10G15G17G18G22G23G26G29
  20524123.3984    1059921.20449    825612.35648                  20524122.7734
        50.5004         43.7504
  23825697.8364    7574976.04149   5882194.31347                  23825698.5944
        42.2504         31.2504
  21269688.5634   -3821129.92049  -2965154.48248                  21269687.6024
        49.7504         42.5004
  20935839.4064   -2301992.09549  -1787143.48848                  20935839.1804
        47.7504         44.0004
  22023402.4384   -6837948.94749  -5317295.61248                  22023402.3914
        46.5004         40.5004
  23260492.7814    -613973.00149   -474926.55247                  23260493.4844
        44.7504         31.5004
  21126218.0474    1808390.69549   1407330.03848                  21126217.3404
        49.7504         44.5004
  22576649.3364   -4621382.18249  -3581086.77347                  22576650.6294
        47.5004         35.2504
  23019449.9614   -2846649.98449  -2217091.68947                  23019449.9304
        43.0004         34.5004
 02  7 11 15 38 30.0000000  0  9G 6G10G15G17G18G22G23G26G29
  20527769.7274    1079082.61549    840543.30048                  20527768.8754
        51.0004         43.0004
  23836711.8364    7632856.04049   5927295.57247                  23836712.9024
        42.5004         30.0004
  21266432.9694   -3838234.72949  -2978482.91948                  21266432.8714
        49.5004         43.0004
  20934445.6644   -2309316.24049  -1792850.61648                  20934445.4454
        47.5004         44.0004
  22016569.5394   -6873859.99449  -5345278.23348                  22016568.2274
        47.5004         40.0004
  23259083.1884    -621383.79949   -480701.18547                  23259083.4304
        44.0004         32.2504
  21130927.4844    1833139.71649   1426614.99948                  21130926.9654
        50.0004         44.2504
  22573114.0944   -4639960.74549  -3595563.56347                  22573114.8134
        46.2504         34.7504
  23018101.9694   -2853734.82949  -2222612.34447                  23018102.1954
        43.0004         34.7504
 02  7 11 15 38 45.0000000  0  9G 6G10G15G17G18G22G23G26G29
  20531444.3524    1098390.99249    855588.76548                  20531443.3164
        51.2504         43.5004
  23847739.5004    7690805.86049   5972451.22747                  23847740.3834
        43.2504         29.7504
  21263195.8674   -3855247.95049  -2991739.96948                  21263195.6294
        49.0004         43.0004
  20933068.2344   -2316553.68449  -1798490.19948                  20933067.8284
        48.0004         43.5004
  22009758.2814   -6909652.09749  -5373168.16948                  22009757.5864
        46.0004         40.2504
  23257705.3204    -628623.38449   -486342.45847                  23257705.2234
        43.0004         32.7504
  21135664.2034    1858030.88949   1446010.70048                  21135663.5434
        48.0004         45.0004
  22569608.2274   -4658378.52149  -3609915.05647                  22569609.9844
        45.5004         35.0004
  23016783.2894   -2860663.89549  -2228011.59947                  23016783.8874
        43.0004         34.0004
 02  7 11 15 39  0.0000000  0  9G 6G10G15G17G18G22G23G26G29
  20535145.5634    1117841.55949    870745.03248                  20535144.4734
        50.5004         43.7504
  23858779.3054    7748820.23749   6017657.19147                  23858781.0474
        42.2504         31.5004
  21259974.2664   -3872174.54149  -3004929.53348                  21259974.4694
        49.0004         43.0004
  20931706.8754   -2323709.25249  -1804065.98048                  20931706.0944
        49.0004         43.0004
  22002969.2344   -6945329.93749  -5400969.06348                  22002968.5744
        46.7504         40.7504
  23256358.9694    -635696.59949   -491854.05047                  23256358.6414
        42.0004         32.0004
  21140426.6094    1883059.15749   1465513.23848                  21140426.0164
        49.0004         44.7504
  22566133.6884   -4676640.04849  -3624144.81347                  22566134.4804
        46.0004         34.0004
  23015493.3674   -2867441.71349  -2233293.00347                  23015493.8754
        43.7504         34.5004
 02  7 11 15 39 15.0000000  0  9G 6G10G15G17G18G22G23G26G29
  20538873.7734    1137432.49749    886010.68948                  20538872.6724
        51.0004         44.2504
  23869831.2424    7806897.06849   6062911.83547                  23869832.8324
        42.5004         31.5004
  21256770.0164   -3889016.29049  -3018052.97648                  21256769.2544
        48.0004         42.7504
  20930360.3204   -2330784.95349  -1809579.52148                  20930359.8134
        49.5004         43.2504
  21996201.1254   -6980895.07149  -5428682.14248                  21996200.5434
        47.0004         41.5004
  23255044.2194    -642605.23149   -497237.41447                  23255044.4224
        42.5004         31.5004
  21145214.9224    1908222.42949   1485120.96848                  21145214.8754
        49.0004         44.7504
  22562687.6884   -4694746.83249  -3638253.98347                  22562689.1804
        44.0004         34.2504
  23014231.9694   -2874070.07549  -2238457.94747                  23014232.2934
        45.0004         34.5004
 02  7 11 15 39 30.0000000  0  9G 6G10G15G17G18G22G23G26G29
  20542629.8524    1157172.80349    901392.73748                  20542629.0124
        50.2504         43.7504
  23880896.1024    7865044.97849   6108221.84347                  23880897.5594
        41.0004         30.5004
  21253582.8134   -3905764.22649  -3031103.32648                  21253582.2704
        48.5004         43.0004
  20929030.7734   -2337771.64849  -1815023.69948                  20929030.3634
        49.5004         43.0004
  21989456.5704   -7016338.49149  -5456300.37248                  21989456.1604
        47.5004         41.0004
  23253762.7974    -649340.17049   -502485.43847                  23253763.4844
        43.0004         30.7504
  21150030.6484    1933529.43349   1504840.70148                  21150030.2344
        49.7504         44.5004
  22559274.0634   -4712689.61349  -3652235.33447                  22559274.8364
        45.0004         34.5004
  23013000.4924   -2880539.81649  -2243499.28847                  23013000.9964
        44.2504         33.5004
 02  7 11 15 39 45.0000000  0  9G 6G10G15G17G18G22G23G26G29
  20546414.9304    1177062.31049    916891.04548                  20546414.2154
        51.5004         44.0004
  23891973.9304    7923263.44649   6153586.82247                  23891976.9614
        40.7504         29.7504
  21250413.7814   -3922418.48149  -3044080.66948                  21250413.0124
        50.0004         43.0004
  20927718.4144   -2344669.60049  -1820398.73648                  20927717.7664
        48.5004         43.2504
  21982735.0944   -7051660.06049  -5483823.66648                  21982734.4264
        47.0004         40.7504
  23252514.1724    -655901.51049   -507598.17447                  23252514.0984
        42.7504         29.5004
  21154874.0474    1958979.73049   1524672.09748                  21154873.6804
        49.5004         44.5004
  22555890.3284   -4730468.29849  -3666088.83947                  22555892.3014
        46.0004         34.0004
  23011799.2814   -2886850.77649  -2248416.90647                  23011799.7854
        43.5004         33.5004
 02  7 11 15 40  0.0000000  0  9G 6G10G15G17G18G22G23G26G29
  20550227.4924    1197097.76449    932503.06348                  20550226.2584
        51.2504         44.0004
  23903065.5164    7981548.91149   6199004.01847                  23903068.0984
        39.2504         28.0004
  21247261.8204   -3938982.32549  -3056987.54648                  21247261.4064
        48.5004         43.0004
  20926421.6884   -2351482.11249  -1825707.17848                  20926421.0824
        46.5004         43.2504
  21976035.9534   -7086862.98449  -5511254.48848                  21976035.6334
        47.5004         40.7504
  23251297.8834    -662292.61449   -512578.25947                  23251298.1094
        41.2504         30.0004
  21159743.6334    1984569.87949   1544612.46248                  21159743.0474
        50.2504         45.0004
  22552537.6334   -4748085.76349  -3679816.71947                  22552539.4024
        43.5004         35.0004
  23010628.7664   -2893006.24549  -2253213.37747                  23010628.5554
        43.0004         34.2504
 02  7 11 15 40 15.0000000  0  9G 6G10G15G17G18G22G23G26G29
  20554068.0314    1217279.40849    948229.00348                  20554067.2704
        50.7504         43.7504
  23914169.9064    8039901.16549   6244473.26047                  23914172.3364
        40.0004         28.7504
  21244127.0944   -3955455.56749  -3069823.84348                  21244126.2274
        48.7504         43.2504
  20925141.6724   -2358208.95849  -1830948.88448                  20925140.9964
        48.7504         43.0004
  21969359.6884   -7121946.80649  -5538592.51848                  21969359.5784
        47.0004         41.5004
  23250113.4224    -668513.07849   -517425.36347                  23250114.6024
        39.2504         30.0004
  21164639.8284    2010299.79749   1564661.73448                  21164639.4574
        50.0004         45.0004
  22549215.9534   -4765541.53049  -3693418.59147                  22549217.9884
        43.7504         34.5004
  23009486.6414   -2899005.76549  -2257888.31447                  23009486.7504
        43.2504         33.7504
 02  7 11 15 40 30.0000000  0  9G 6G10G15G17G18G22G23G26G29
  20557936.5944    1237608.80749    964070.07648                  20557935.4184
        51.0004         43.7504
  23925287.7974    8098321.33949   6289995.43047                  23925289.2304
        41.7504         31.5004
  21241009.6414   -3971836.65849  -3082588.33248                  21241008.8714
        50.0004         42.7504
  20923878.1484   -2364848.75749  -1836122.75848                  20923877.3984
        49.0004         43.5004
  21962706.7114   -7156909.68849  -5565836.30048                  21962706.0164
        47.0004         41.2504
  23248962.8834    -674561.33849   -522138.28547                  23248963.1684
        38.5004         30.5004
  21169562.9064    2036170.78049   1584820.92348                  21169562.5164
        49.2504         44.5004
  22545925.6024   -4782833.70949  -3706893.00147                  22545927.2304
        46.0004         35.0004
  23008375.0234   -2904847.61249  -2262440.39247                  23008375.0984
        44.0004         33.7504
 02  7 11 15 40 45.0000000  0  9G 6G10G15G17G18G22G23G26G29
  20561831.8754    1258078.53349    980020.49348                  20561830.7424
        51.0004         43.7504
  23936415.8204    8156801.76649   6335564.54947                  23936417.1884
        41.5004         30.5004
  21237908.5474   -3988133.16549  -3095286.90348                  21237908.2194
        50.0004         42.7504
  20922630.0234   -2371408.89849  -1841234.56348                  20922629.2384
        48.2504         43.7504
  21956075.1484   -7191758.96349  -5592991.57048                  21956074.6094
        46.5004         41.0004
  23247843.2894    -680444.88649   -526722.88047                  23247844.3754
        40.0004         30.7504
  21174511.9224    2062175.09849   1605084.02048                  21174510.8134
        49.2504         44.5004
  22542664.4924   -4799969.53349  -3720245.56847                  22542666.2934
        45.5004         34.7504
  23007291.6644   -2910539.16149  -2266875.35647                  23007292.2894
        43.5004         34.5004
 02  7 11 15 41  0.0000000  0  9G 6G10G15G17G18G22G23G26G29
  20565754.6804    1278693.90649    996084.41048                  20565753.7154
        51.5004         43.7504
  23947557.1094    8215347.47149   6381184.50647                  23947558.8244
        42.0004         30.0004
  21234824.6174   -4004339.67749  -3107915.34748                  21234823.9924
        49.5004         42.5004
  20921397.8754   -2377884.09549  -1846280.18548                  20921397.4774
        48.5004         43.5004
  21949465.8754   -7226489.13949  -5620054.02248                  21949465.4844
        47.0004         41.2504
  23246756.4144    -686158.28149   -531174.86447                  23246756.9144
        43.2504         31.2504
  21179486.3754    2088317.89449   1625455.01448                  21179486.0784
        50.5004         44.7504
  22539434.0234   -4816943.37149  -3733471.92147                  22539436.4104
        45.0004         34.5004
  23006238.4454   -2916074.87249  -2271188.88947                  23006238.7154
        42.5004         34.0004
 02  7 11 15 41 15.0000000  0  9G 6G10G15G17G18G22G23G26G29
  20569705.5474    1299455.50149   1012262.26348                  20569704.5864
        51.2504         43.5004
  23958709.9144    8273958.78049   6426855.62147                  23958712.2464
        41.7504         30.2504
  21231757.7344   -4020455.58449  -3120473.19948                  21231757.7344
        49.5004         42.7504
  20920182.0864   -2384273.77449  -1851259.14748                  20920181.5234
        49.7504         43.5004
  21942879.8754   -7261099.41149  -5647023.05548                  21942878.9384
        47.0004         40.7504
  23245702.0164    -691700.87149   -535493.78647                  23245702.3674
        43.5004         31.5004
  21184487.6724    2114599.47249   1645934.15148                  21184486.8204
        49.7504         44.5004
  22536235.3284   -4833754.28049  -3746571.30447                  22536237.1684
        45.5004         34.2504
  23005214.4774   -2921453.99549  -2275380.40647                  23005215.3634
        43.2504         34.2504
 02  7 11 15 41 30.0000000  0  9G 6G10G15G17G18G22G23G26G29
  20573683.2504    1320358.03149   1028549.92348                  20573682.1134
        51.5004         43.7504
  23969875.1724    8332630.01049   6472573.39947                  23969875.9574
        42.2504         30.5004
  21228707.1414   -4036486.23249  -3132964.60648                  21228707.0164
        49.5004         42.5004
  20918981.1724   -2390583.23149  -1856175.62048                  20918981.0044
        49.5004         43.5004
  21936315.4304   -7295594.77449  -5673902.54848                  21936314.7344
        47.0004         40.7504
  23244678.9924    -697077.83949   -539683.66847                  23244679.1564
        42.0004         32.2504
  21189514.2274    2141014.35549   1666517.17148                  21189513.5864
        50.5004         45.0004
  22533066.1564   -4850407.22249  -3759547.60047                  22533068.0434
        45.7504         33.7504
  23004220.0634   -2926681.56249  -2279453.82847                  23004220.9534
        42.5004         34.2504
 02  7 11 15 41 45.0000000  0  9G 6G10G15G17G18G22G23G26G29
  20577688.9924    1341407.56949   1044952.14448                  20577687.8834
        51.0004         44.0004
  23981052.0314    8391366.77349   6518342.29147                  23981053.6174
        42.7504         30.0004
  21225674.1804   -4052425.64449  -3145384.92248                  21225673.9694
        50.0004         43.2504
  20917796.8754   -2396806.58349  -1861024.99348                  20917796.1804
        49.2504         43.5004
  21929774.6024   -7329969.10249  -5700687.72248                  21929773.7464
        48.0004         40.5004
  23243688.1644    -702283.32549   -543739.88647                  23243688.2114
        43.5004         32.0004
  21194567.2114    2167568.26649   1687208.52648                  21194566.8054
        50.5004         45.0004
  22529929.1024   -4866895.91449  -3772395.91447                  22529930.2704
        46.2504         35.0004
  23003255.2274   -2931751.34849  -2283404.28647                  23003256.1334
        41.5004         34.0004
 02  7 11 15 42  0.0000000  0  9G 6G10G15G17G18G22G23G26G29
  20581721.5474    1362599.50249   1061465.31648                  20581720.7114
        50.7504         43.7504
  23992240.9614    8450164.23349   6564158.42547                  23992242.7734
        42.2504         30.5004
  21222657.6414   -4068278.23649  -3157737.60348                  21222657.7034
        49.0004         43.0004
  20916628.0474   -2402948.21049  -1865810.69848                  20916627.6764
        49.0004         43.5004
  21923255.5784   -7364226.67549  -5727381.93148                  21923254.9064
        48.0004         41.0004
  23242729.8134    -707321.65449   -547665.86347                  23242729.3054
        42.2504         31.5004
  21199645.8134    2194256.45149   1708004.49148                  21199645.3444
        50.2504         44.7504
  22526821.5864   -4883224.65749  -3785119.60647                  22526822.4024
        46.5004         34.2504
  23002319.7274   -2936667.98049  -2287235.45047                  23002320.5044
        42.5004         34.5004
 02  7 11 15 42 15.0000000  0  9G 6G10G15G17G18G22G23G26G29
  20585781.8524    1383936.07749   1078091.19048                  20585781.3244
        50.7504         43.7504
  24003442.1254    8509024.30549   6610023.35447                  24003443.5084
        43.0004         30.7504
  21219657.8284   -4084041.80949  -3170020.90448                  21219657.9384
        49.0004         42.7504
  20915475.5164   -2409005.96249  -1870531.03448                  20915475.0354
        49.5004         43.7504
  21916759.1094   -7398365.16049  -5753983.33048                  21916758.0164
        47.0004         41.0004
  23241803.0784    -712190.61849   -551459.88247                  23241803.4844
        43.0004         31.5004
  21204750.3674    2221080.81449   1728906.58348                  21204749.5664
        49.7504         44.5004
  22523745.3444   -4899390.87349  -3797716.62647                  22523745.7344
        46.2504         33.7504
  23001413.5234   -2941428.84249  -2290945.19547                  23001414.3324
        43.0004         34.5004
 02  7 11 15 42 30.0000000  0  9G 6G10G15G17G18G22G23G26G29
  20589870.2974    1405422.11349   1094833.53248                  20589869.7814
        51.0004         43.5004
  24014655.3364    8567951.59349   6655940.67547                  24014657.7704
        44.0004         31.0004
  21216675.9384   -4099711.60949  -3182231.13648                  21216676.2854
        49.5004         43.0004
  20914339.4454   -2414975.11149  -1875182.31448                  20914339.2974
        49.7504         43.7504
  21910286.3914   -7432379.61549  -5780488.08548                  21910285.5664
        47.0004         41.0004
  23240909.8054    -716885.33549   -555118.09947                  23240909.8834
        43.7504         32.5004
  21209881.6024    2248045.97949   1749918.38648                  21209880.9534
        49.5004         44.5004
  22520701.2034   -4915389.36449  -3810182.96547                  22520702.3364
        46.0004         34.0004
  23000538.1954   -2946029.00149  -2294529.73747                  23000538.9614
        43.7504         34.2504
 02  7 11 15 42 45.0000000  0  9G 6G10G15G17G18G22G23G26G29
  20593986.7504    1427052.99049   1111688.74548                  20593985.8164
        50.5004         44.0004
  24025880.4304    8626940.90249   6701906.32047                  24025882.6994
        43.0004         30.0004
  21213710.9614   -4115292.28449  -3194371.91748                  21213711.4534
        50.0004         43.5004
  20913219.6724   -2420860.34049  -1879768.21248                  20913219.1214
        49.2504         43.5004
  21903836.5474   -7466274.36249  -5806899.54448                  21903835.8054
        47.2504         41.5004
  23240048.5704    -721410.47949   -558644.20447                  23240049.1954
        42.5004         32.0004
  21215038.5554    2275147.04349   1771036.08848                  21215038.2734
        49.7504         44.5004
  22517687.8364   -4931224.67649  -3822522.15447                  22517688.7464
        46.5004         34.0004
  22999692.2734   -2950473.06149  -2297992.64047                  22999693.3594
        44.7504         34.5004
 02  7 11 15 43  0.0000000  0  9G 6G10G15G17G18G22G23G26G29
  20598131.7664    1448834.89249   1128661.64448                  20598130.7974
        51.0004         44.2504
  24037118.7894    8685998.26049   6747924.98147                  24037121.1414
        43.2504         28.2504
  21210764.3284   -4130777.62449  -3206438.41148                  21210764.3094
        49.2504         43.5004
  20912116.4614   -2426655.40149  -1884283.86448                  20912116.1484
        49.5004         43.5004
  21897410.2974   -7500043.09749  -5833212.82248                  21897409.8364
        47.5004         40.7504
  23239221.0634    -725759.84149   -562033.32347                  23239220.9454
        42.2504         32.0004
  21220222.7664    2302389.95849   1792264.31848                  21220222.3524
        50.2504         45.0004
  22514706.3134   -4946890.26649  -3834729.06847                  22514708.2194
        46.2504         34.2504
  22998877.8834   -2954754.69349  -2301328.95947                  22998878.3244
        43.0004         34.2504
 02  7 11 15 43 15.0000000  0  9G 6G10G15G17G18G22G23G26G29
  20602305.9534    1470770.88449   1145754.59648                  20602304.6604
        50.7504         44.2504
  24048370.4614    8745126.41449   6793998.81947                  24048372.4344
        42.2504         28.5004
  21207836.1884   -4146164.54249  -3218428.21848                  21207836.3754
        49.2504         43.0004
  20911032.2034   -2432357.31249  -1888726.92048                  20911031.6254
        49.2504         44.0004
  21891009.1254   -7533682.60549  -5859425.41748                  21891008.3484
        47.0004         41.5004
  23238427.4064    -729930.27449   -565283.05047                  23238427.7304
        42.7504         31.5004
  21225434.6644    2329777.49649   1813605.23948                  21225433.8874
        50.0004         44.5004
  22511758.6094   -4962382.78349  -3846801.16747                  22511759.9454
        47.0004         36.0004
  22998094.4694   -2958870.48749  -2304536.07947                  22998095.1254
        43.5004         34.5004
 02  7 11 15 43 30.0000000  0  9G 6G10G15G17G18G22G23G26G29
  20606509.3524    1492859.17849   1162966.24448                  20606508.3484
        51.0004         43.7504
  24059635.2504    8804323.16349   6840126.12047                  24059637.2274
        42.5004         27.7504
  21204926.5784   -4161454.92949  -3230342.80148                  21204927.0164
        49.2504         43.2504
  20909964.6174   -2437967.90349  -1893098.82848                  20909963.7274
        50.0004         44.0004
  21884632.1174   -7567194.43249  -5885538.51148                  21884631.7344
        47.5004         41.7504
  23237667.4844    -733923.45549   -568394.62347                  23237667.2304
        44.0004         32.7504
  21230673.3364    2357307.63449   1835057.29248                  21230673.0314
        50.0004         44.5004
  22508843.3914   -4977703.71649  -3858739.53347                  22508844.3524
        46.5004         36.0004
  22997343.2274   -2962822.23149  -2307615.34347                  22997343.3134
        43.5004         35.2504
 02  7 11 15 43 45.0000000  0  9G 6G10G15G17G18G22G23G26G29
  20610741.9304    1515101.94449   1180298.24348                  20610740.9304
        50.5004         43.7504
  24070913.6254    8863590.25549   6886308.21447                  24070915.3524
        42.2504         28.0004
  21202035.8594   -4176646.59849  -3242180.47448                  21202036.0124
        49.5004         43.5004
  20908914.7344   -2443485.03449  -1897397.90648                  20908914.0664
        49.7504         44.0004
  21878279.8594   -7600576.26249  -5911550.31848                  21878278.8984
        47.7504         41.7504
  23236941.8284    -737737.35449   -571366.54547                  23236942.6914
        43.0004         32.5004
  21235939.6414    2384982.30449   1856621.94448                  21235939.4494
        49.7504         44.7504
  22505960.7274   -4992850.63849  -3870542.31247                  22505962.0084
        46.5004         35.5004
  22996621.9924   -2966607.56349  -2310564.95747                  22996622.9184
        44.5004         35.0004
 02  7 11 15 44  0.0000000  0  9G 6G10G15G17G18G22G23G26G29
  20615004.7504    1537502.66749   1197753.32948                  20615004.1724
        50.5004         44.0004
  24082205.6644    8922930.94849   6932547.64047                  24082207.5084
        41.7504         28.2504
  21199164.0394   -4191736.01849  -3253938.45948                  21199164.3244
        49.7504         43.0004
  20907883.3984   -2448905.15049  -1901621.37148                  20907882.4694
        50.0004         43.7504
  21871953.1254   -7633824.46349  -5937457.97748                  21871952.1174
        48.0004         42.2504
  23236251.3444    -741368.24949   -574195.80447                  23236251.3914
        43.5004         32.0004
  21241234.3594    2412804.76649   1878301.77848                  21241233.8554
        49.7504         44.7504
  22503112.2504   -5007819.69149  -3882206.46547                  22503113.3444
        47.0004         35.5004
  22995934.2664   -2970222.86449  -2313382.05747                  22995934.7304
        45.0004         34.7504
 02  7 11 15 44 15.0000000  0  9G 6G10G15G17G18G22G23G26G29
  20619297.0634    1560061.38749   1215331.53648                  20619296.3914
        50.5004         44.0004
  24093511.9844    8982344.89649   6978844.19747                  24093513.4844
        41.2504         27.7504
  21196312.5704   -4206723.11949  -3265616.73048                  21196312.1294
        49.2504         42.7504
  20906870.5164   -2454228.35849  -1905769.32348                  20906869.7854
        50.0004         43.7504
  21865651.7504   -7666938.70349  -5963261.26748                  21865650.7934
        48.2504         41.5004
  23235594.7974    -744816.19349   -576882.52547                  23235595.3484
        42.5004         32.2504
  21246556.8134    2440774.81549   1900096.60248                  21246556.2854
        50.0004         44.5004
  22500298.0234   -5022610.58149  -3893731.81947                  22500298.6054
        47.7504         35.5004
  22995279.1024   -2973667.92749  -2316066.51447                  22995279.6334
        44.5004         35.5004
 02  7 11 15 44 30.0000000  0  9G 6G10G15G17G18G22G23G26G29
  20623621.4064    1582785.40349   1233038.53548                  20623621.0234
        50.5004         44.0004
  24104833.3754    9041839.24849   7025203.40047                  24104834.9694
        40.7504         28.5004
  21193481.2034   -4221600.55649  -3277209.52748                  21193481.5824
        49.5004         43.0004
  20905876.9774   -2459447.30649  -1909836.05048                  20905876.3204
        50.0004         43.7504
  21859376.8834   -7699911.49949  -5988954.34248                  21859375.9104
        48.5004         41.2504
  23234975.2814    -748073.84249   -579420.98147                  23234975.3244
        43.0004         32.0004
  21251908.8364    2468899.42149   1922011.86448                  21251908.6884
        50.2504         45.0004
  22497518.5004   -5037215.74749  -3905112.43847                  22497518.8554
        47.7504         35.5004
  22994657.3134   -2976935.27449  -2318612.50147                  22994657.2544
        44.5004         35.0004
 02  7 11 15 44 45.0000000  0  9G 6G10G15G17G18G22G23G26G29
  20627977.3364    1605674.13349   1250873.87648                  20627976.8244
        51.0004         43.5004
  24116169.7974    9101413.05149   7071624.47147                  24116171.7624
        41.5004         29.2504
  21190671.2274   -4236368.97649  -3288717.38648                  21190670.9734
        49.5004         43.5004
  20904903.5864   -2464562.57849  -1913821.97648                  20904903.0164
        50.0004         43.5004
  21853129.1804   -7732743.33549  -6014537.57548                  21853128.2154
        48.2504         41.5004
  23234390.7274    -751141.80149   -581811.61247                  23234390.8364
        43.7504         32.0004
  21257290.1254    2497177.78949   1944046.94648                  21257289.4494
        50.5004         45.0004
  22494774.7274   -5051635.47949  -3916348.57347                  22494774.9224
        47.5004         35.0004
  22994069.7114   -2980025.29149  -2321020.29647                  22994069.6254
        44.5004         35.5004
 02  7 11 15 45  0.0000000  0  9G 6G10G15G17G18G22G23G26G29
  20632364.5864    1628729.35949   1268838.97648                  20632363.6884
        51.2504         43.7504
  24127521.6564    9161067.70949   7118108.56247                  24127524.0944
        42.0004         29.2504
  21187881.7424   -4251026.57449  -3300138.89148                  21187881.8754
        49.5004         42.5004
  20903950.2504   -2469572.52749  -1917725.84248                  20903949.7664
        50.0004         43.5004
  21846908.5784   -7765432.17549  -6040009.38448                  21846907.6094
        48.7504         42.0004
  23233843.7664    -754018.16849   -584052.92547                  23233843.6254
        43.5004         32.5004
  21262700.6174    2525611.40049   1966202.98648                  21262700.6214
        49.7504         45.0004
  22492066.5394   -5065867.69149  -3927438.59047                  22492066.3364
        48.0004         35.2504
  22993515.5084   -2982936.18049  -2323288.52647                  22993515.8244
        46.0004         36.0004
 02  7 11 15 45 15.0000000  0  9G 6G10G15G17G18G22G23G26G29
  20636783.9144    1651953.69749   1286935.84248                  20636783.2814
        51.0004         43.7504
  24138889.6334    9220805.44849   7164657.41347                  24138891.0554
        41.5004         28.0004
  21185114.0554   -4265570.78549  -3311472.02948                  21185113.5274
        49.5004         42.7504
  20903017.1644   -2474474.50349  -1921545.56148                  20903016.3954
        50.2504         43.5004
  21840715.9614   -7797975.30349  -6065367.65148                  21840714.9344
        48.2504         41.5004
  23233333.8204    -756700.41649   -586143.02947                  23233333.2074
        43.2504         32.2504
  21268141.4224    2554202.60249   1988481.83848                  21268141.3524
        50.0004         45.5004
  22489394.4614   -5079909.51849  -3938380.23647                  22489394.5164
        47.0004         35.5004
  22992996.4534   -2985665.19649  -2325415.02347                  22992997.3094
        45.0004         35.5004
 02  7 11 15 45 30.0000000  0  9G 6G10G15G17G18G22G23G26G29
  20641236.1884    1675350.54549   1305167.12348                  20641235.3594
        50.7504         44.0004
  24150273.8754    9280629.53549   7211273.52647                  24150274.6134
        40.2504         28.0004
  21182368.2734   -4279998.16949  -3322714.16248                  21182368.1564
        49.0004         42.5004
  20902105.9224   -2479265.06849  -1925278.49148                  20902105.3134
        50.2504         43.0004
  21834551.5704   -7830369.12649  -6090609.59448                  21834550.5864
        47.5004         41.5004
  23232861.0234    -759185.01149   -588079.05847                  23232860.1294
        43.5004         33.0004
  21273612.7974    2582954.63049   2010885.99848                  21273612.2854
        49.5004         45.2504
  22486758.9224   -5093757.15849  -3949170.60947                  22486759.0434
        47.5004         35.5004
  22992512.1174   -2988208.57949  -2327396.89247                  22992513.0394
        46.0004         36.0004
 02  7 11 15 45 45.0000000  0  9G 6G10G15G17G18G22G23G26G29
  20645721.9454    1698923.25349   1323535.45248                  20645721.3244
        50.7504         43.5004
  24161675.2734    9340542.99849   7257959.31647                  24161676.4534
        41.0004         29.0004
  21179645.9774   -4294305.36649  -3333862.61248                  21179645.6134
        49.5004         42.5004
  20901216.1484   -2483940.78749  -1928921.91248                  20901215.3324
        50.2504         43.2504
  21828416.2424   -7862610.04749  -6115732.36448                  21828415.5984
        48.2504         41.2504
  23232426.2894    -761468.53349   -589858.45547                  23232425.9884
        44.0004         31.7504
  21279115.2424    2611870.55949   2033417.87948                  21279115.0234
        49.7504         44.2504
  22484161.4384   -5107407.10449  -3959806.90147                  22484162.0474
        47.2504         35.2504
  22992064.1414   -2990562.94349  -2329231.45347                  22992065.4534
        45.7504         36.0004
 02  7 11 15 46  0.0010000  0  9G 6G10G15G17G18G22G23G26G29
  20650241.8644    1722674.54249   1342042.93348                  20650241.3134
        50.7504         44.0004
  24173094.3104    9400550.46849   7304718.36047                  24173095.8214
        43.0004         29.5004
  21176946.5754   -4308492.19949  -3344917.30148                  21176945.9504
        49.5004         43.0004
  20900347.9274   -2488500.98949  -1932475.33248                  20900347.4854
        49.2504         43.5004
  21822310.0364   -7894698.79349  -6140736.56048                  21822308.9664
        48.5004         41.7504
  23232029.8104    -763550.04749   -591480.45547                  23232030.3024
        41.7504         31.2504
  21284649.2554    2640953.26249   2056079.70948                  21284649.2204
        49.5004         44.5004
  22481601.4114   -5120858.70649  -3970288.65247                  22481602.2514
        47.0004         35.2504
  22991652.0134   -2992727.19549  -2330917.88047                  22991653.4814
        44.2504         35.7504
